MOUNT RAINIER
GEOLOGY & WEATHER
Hello guest! [ Log In ]
csv data for Kautz Creek at Kautz Helibase

Kautz Creek at Kautz Helibase

Date Range to view:
 
[ Graphical View | Weather History ]

GMT Datetime,Local Datetime,Stage (ft),Rainfall (in),Turbidity (ntu),Air Temperature (°C),Dew Point Temperature (°C),Water Temperature (°C),Enclosure Temperature (°C),Turbidity Temperature (°C),10-hour Fuel Temperature (°C),Relative Humidity (%),,Wind Direction (°),Wind Speed (mph),Wind Gust Speed (mph),Visibility (m),Water Conductivity (μS/cm),Snow Depth (m),Air Level (psi),Water Level (psi),Battery (V),Solar Panel (V),Slave Radio Battery Voltage (v)
2022-01-15 08:00:00,2022-01-15 00:00:00,0.6358,41.06,555.70,-0.2000,-0.2000,1.8590,-1.8,2,-999.0,100.0,,60,1.57,3.58,-999,8.1550,0.403,13.6829,13.9580,11.5,0.1,-999.0000
2022-01-15 08:15:00,2022-01-15 00:15:00,0.6335,41.06,555.60,0.0000,0.0000,1.8600,-1.8,2,-999.0,100.0,,58,1.57,2.24,-999,8.1560,0.402,13.6829,13.9570,11.5,0.1,-999.0000
2022-01-15 08:30:00,2022-01-15 00:30:00,0.6335,41.06,557.10,0.1000,0.1000,1.8590,-1.7,2,-999.0,100.0,,0,0.67,2.68,-999,8.1370,0.401,13.6829,13.9570,11.5,0.1,-999.0000
2022-01-15 08:45:00,2022-01-15 00:45:00,0.6348,41.06,558.00,0.1000,0.1000,1.8580,-1.7,2,-999.0,100.0,,65,1.12,2.24,-999,8.1440,0.403,13.6843,13.9590,11.5,0.1,-999.0000
2022-01-15 09:00:00,2022-01-15 01:00:00,0.6368,41.06,557.40,0.1000,0.1000,1.8580,-1.7,2,-999.0,100.0,,52,1.34,2.24,-999,8.1300,0.404,13.6814,13.9570,11.5,0.1,-999.0000
2022-01-15 09:15:00,2022-01-15 01:15:00,0.6412,41.06,557.60,-0.1000,-0.1000,1.8580,-1.7,2,-999.0,100.0,,56,1.34,3.13,-999,8.1270,0.402,13.6785,13.9560,11.5,0.1,-999.0000
2022-01-15 09:30:00,2022-01-15 01:30:00,0.6368,41.06,557.60,-0.2000,-0.2000,1.8570,-1.5,2,-999.0,100.0,,56,1.57,2.68,-999,8.1210,0.401,13.6814,13.9570,11.5,0.1,-999.0000
2022-01-15 09:45:00,2022-01-15 01:45:00,0.6345,41.06,557.30,-0.2000,-0.2000,1.8580,-1.5,2,-999.0,100.0,,62,1.57,2.91,-999,8.1190,0.403,13.6814,13.9560,11.5,0.1,-999.0000
2022-01-15 10:00:00,2022-01-15 02:00:00,0.6348,41.06,557.40,-0.4000,-0.4000,1.8570,-1.7,2,-999.0,100.0,,48,1.79,3.58,-999,8.1120,0.403,13.6843,13.9590,11.5,0.0,-999.0000
2022-01-15 10:15:00,2022-01-15 02:15:00,0.6394,41.06,557.10,-0.4000,-0.4000,1.8570,-1.7,2,-999.0,100.0,,33,1.79,3.36,-999,8.1250,0.402,13.6843,13.9610,11.5,0.1,-999.0000
2022-01-15 10:30:00,2022-01-15 02:30:00,0.6327,41.06,560.30,-0.5000,-0.5000,1.8580,-1.7,2,-999.0,100.0,,40,2.01,4.03,-999,8.1180,0.404,13.6872,13.9610,11.5,0.0,-999.0000
2022-01-15 10:45:00,2022-01-15 02:45:00,0.6316,41.06,558.90,-0.5000,-0.5000,1.8580,-1.8,2,-999.0,100.0,,41,1.57,2.68,-999,8.1100,0.402,13.6887,13.9620,11.5,0.0,-999.0000
2022-01-15 11:00:00,2022-01-15 03:00:00,0.6316,41.06,559.00,-0.6000,-0.6000,1.8580,-1.8,2,-999.0,100.0,,43,1.12,2.24,-999,8.1040,0.403,13.6887,13.9620,11.5,0.0,-999.0000
2022-01-15 11:15:00,2022-01-15 03:15:00,0.6371,41.06,558.80,-0.7000,-0.7000,1.8580,-2.0,2,-999.0,100.0,,49,1.57,3.13,-999,8.1010,0.402,13.6843,13.9600,11.5,0.0,-999.0000
2022-01-15 11:30:00,2022-01-15 03:30:00,0.6345,41.06,559.10,-0.7000,-0.7000,1.8570,-2.0,2,-999.0,100.0,,46,1.79,3.36,-999,8.1020,0.403,13.6814,13.9560,11.5,0.0,-999.0000
2022-01-15 11:45:00,2022-01-15 03:45:00,0.6345,41.06,559.20,-0.8000,-0.8000,1.8560,-2.0,2,-999.0,100.0,,38,2.01,3.80,-999,8.0890,0.402,13.6814,13.9560,11.4,0.1,-999.0000
2022-01-15 12:00:00,2022-01-15 04:00:00,0.6345,41.06,559.10,-0.7000,-0.7000,1.8550,-2.2,2,-999.0,100.0,,51,1.34,2.46,-999,8.0910,0.404,13.6814,13.9560,11.5,0.0,-999.0000
2022-01-15 12:15:00,2022-01-15 04:15:00,0.6339,41.06,558.80,-0.7000,-0.7000,1.8540,-2.2,2,-999.0,100.0,,35,1.34,2.91,-999,8.0800,0.403,13.6887,13.9630,11.5,0.0,-999.0000
2022-01-15 12:30:00,2022-01-15 04:30:00,0.6413,41.06,558.90,-0.8000,-0.8000,1.8530,-2.2,2,-999.0,100.0,,34,2.24,4.47,-999,8.0860,0.400,13.6945,13.9720,11.5,0.0,-999.0000
2022-01-15 12:45:00,2022-01-15 04:45:00,0.6348,41.06,558.90,-0.8000,-0.8000,1.8520,-2.2,2,-999.0,100.0,,60,1.12,3.13,-999,8.0770,0.402,13.6843,13.9590,11.5,0.0,-999.0000
2022-01-15 13:00:00,2022-01-15 05:00:00,0.6351,41.06,559.00,-0.7000,-0.7000,1.8510,-2.2,2,-999.0,100.0,,45,2.24,4.92,-999,8.0790,0.402,13.6742,13.9490,11.5,0.0,-999.0000
2022-01-15 13:15:00,2022-01-15 05:15:00,0.6307,41.06,558.90,-0.6000,-0.6000,1.8500,-2.2,2,-999.0,100.0,,72,0.89,1.57,-999,8.0800,0.403,13.6771,13.9500,11.5,0.0,-999.0000
2022-01-15 13:30:00,2022-01-15 05:30:00,0.6294,41.06,558.70,-0.7000,-0.7000,1.8490,-2.2,2,-999.0,100.0,,37,2.24,4.70,-999,8.0630,0.402,13.6756,13.9480,11.5,0.0,-999.0000
2022-01-15 13:45:00,2022-01-15 05:45:00,0.6385,41.06,558.90,-0.7000,-0.7000,1.8480,-2.2,2,-999.0,100.0,,71,1.12,2.24,-999,8.0690,0.402,13.6727,13.9490,11.4,0.0,-999.0000
2022-01-15 14:00:00,2022-01-15 06:00:00,0.6305,41.06,558.70,-0.6000,-0.6000,1.8470,-2.2,2,-999.0,100.0,,58,1.12,2.91,-999,8.0650,0.402,13.6742,13.9470,11.5,0.0,-999.0000
2022-01-15 14:15:00,2022-01-15 06:15:00,0.6385,41.06,559.30,-0.7000,-0.7000,1.8470,-2.4,2,-999.0,100.0,,54,1.57,4.70,-999,8.0680,0.404,13.6727,13.9490,11.4,0.0,-999.0000
2022-01-15 14:30:00,2022-01-15 06:30:00,0.6349,41.06,559.90,-0.5000,-0.5000,1.8460,-2.2,2,-999.0,100.0,,44,1.79,3.80,-999,8.0720,0.404,13.6713,13.9460,11.5,0.0,-999.0000
2022-01-15 14:45:00,2022-01-15 06:45:00,0.6372,41.06,559.60,-0.6000,-0.6000,1.8460,-2.0,2,-999.0,100.0,,71,1.57,3.36,-999,8.0680,0.403,13.6713,13.9470,11.4,0.0,-999.0000
2022-01-15 15:00:00,2022-01-15 07:00:00,0.6351,41.06,559.70,-0.3000,-0.3000,1.8450,-1.8,2,-999.0,100.0,,53,0.89,2.91,-999,8.0590,0.403,13.6742,13.9490,11.4,0.2,-999.0000
2022-01-15 15:15:00,2022-01-15 07:15:00,0.6330,41.06,559.70,-0.2000,-0.2000,1.8450,-1.7,2,-999.0,100.0,,44,1.12,2.68,-999,8.0540,0.402,13.6771,13.9510,11.4,0.7,-999.0000
2022-01-15 15:30:00,2022-01-15 07:30:00,0.6341,41.06,559.50,-0.2000,-0.2000,1.8450,-1.5,2,-999.0,100.0,,56,0.89,2.68,-999,8.0690,0.402,13.6756,13.9500,11.4,5.7,-999.0000
2022-01-15 15:45:00,2022-01-15 07:45:00,0.6318,41.06,559.50,-0.1000,-0.1000,1.8460,-1.3,2,-999.0,100.0,,83,1.12,1.79,-999,8.0590,0.402,13.6756,13.9490,11.4,11.4,-999.0000
2022-01-15 16:00:00,2022-01-15 08:00:00,0.6305,41.06,559.40,0.1000,0.1000,1.8470,-1.1,2,-999.0,100.0,,47,2.46,5.14,-999,8.0520,0.404,13.6742,13.9470,11.4,11.4,-999.0000
2022-01-15 16:15:00,2022-01-15 08:15:00,0.6328,41.06,559.10,0.2000,0.2000,1.8470,-1.1,2,-999.0,100.0,,52,1.79,3.58,-999,8.0580,0.402,13.6742,13.9480,11.5,11.5,-999.0000
2022-01-15 16:30:00,2022-01-15 08:30:00,0.6315,41.06,559.50,0.2000,0.2000,1.8490,-0.6,2,-999.0,100.0,,55,1.79,3.36,-999,8.0590,0.401,13.6727,13.9460,11.5,11.5,-999.0000
2022-01-15 16:45:00,2022-01-15 08:45:00,0.6282,41.06,559.40,0.2000,0.2000,1.8510,-0.6,2.1,-999.0,100.0,,58,1.34,2.68,-999,8.0630,0.401,13.6742,13.9460,11.5,11.6,-999.0000
2022-01-15 17:00:00,2022-01-15 09:00:00,0.6284,41.06,559.50,0.3000,0.3000,1.8530,-0.8,2.1,-999.0,100.0,,56,0.89,2.46,-999,8.0710,0.400,13.6771,13.9490,11.6,11.6,-999.0000
2022-01-15 17:15:00,2022-01-15 09:15:00,0.6330,41.06,559.30,0.4000,0.4000,1.8550,-0.6,2.1,-999.0,100.0,,61,0.89,1.79,-999,8.0560,0.400,13.6771,13.9510,11.6,11.7,-999.0000
2022-01-15 17:30:00,2022-01-15 09:30:00,0.6333,41.06,559.40,0.4000,0.4000,1.8580,-0.6,2.1,-999.0,100.0,,52,1.12,2.24,-999,8.0570,0.401,13.6800,13.9540,11.7,11.7,-999.0000
2022-01-15 17:45:00,2022-01-15 09:45:00,0.6299,41.06,559.40,0.4000,0.4000,1.8600,-0.5,2.1,-999.0,100.0,,50,1.34,2.24,-999,8.0650,0.402,13.6814,13.9540,11.7,11.7,-999.0000
2022-01-15 18:00:00,2022-01-15 10:00:00,0.6343,41.06,560.10,0.4000,0.4000,1.8630,-0.5,2.1,-999.0,100.0,,54,1.34,3.13,-999,8.0680,0.399,13.6785,13.9530,11.7,11.8,-999.0000
2022-01-15 18:15:00,2022-01-15 10:15:00,0.6276,41.06,559.90,0.6000,0.6000,1.8650,-0.5,2.1,-999.0,100.0,,85,1.12,2.24,-999,8.0480,0.400,13.6814,13.9530,11.8,11.8,-999.0000
2022-01-15 18:30:00,2022-01-15 10:30:00,0.6286,41.06,559.80,0.7000,0.7000,1.8680,-0.3,2.1,-999.0,100.0,,83,1.34,2.68,-999,8.0520,0.401,13.6800,13.9520,11.8,11.8,-999.0000
2022-01-15 18:45:00,2022-01-15 10:45:00,0.6320,41.07,559.70,1.1000,1.1000,1.8710,-0.1,2.1,-999.0,100.0,,69,1.57,2.24,-999,8.0590,0.399,13.6785,13.9520,11.9,12.0,-999.0000
2022-01-15 19:00:00,2022-01-15 11:00:00,0.6297,41.07,559.90,1.6000,1.6000,1.8750,-0.1,2.1,-999.0,100.0,,82,1.34,2.24,-999,8.0480,0.399,13.6785,13.9510,11.8,11.9,-999.0000
2022-01-15 19:15:00,2022-01-15 11:15:00,0.6297,41.07,560.00,2.3000,2.3000,1.8780,-0.1,2.1,-999.0,100.0,,73,1.57,2.24,-999,8.0450,0.387,13.6785,13.9510,12.1,12.3,-999.0000
2022-01-15 19:30:00,2022-01-15 11:30:00,-999.0000,41.07,-999.00,2.5000,2.5000,-999.0000,0.4,-999,-999.0,100.0,,94,1.34,2.01,-999,-999.0000,0.395,13.6785,-999.0000,12.1,12.3,-999.0000
2022-01-15 19:45:00,2022-01-15 11:45:00,-999.0000,41.07,-999.00,3.1000,3.1000,-999.0000,0.6,-999,-999.0,100.0,,84,1.57,2.01,-999,-999.0000,0.400,13.6771,-999.0000,12.3,12.5,-999.0000
2022-01-15 20:00:00,2022-01-15 12:00:00,-999.0000,41.07,-999.00,3.2000,3.2000,-999.0000,0.9,-999,-999.0,100.0,,89,1.34,2.24,-999,-999.0000,0.396,13.6771,-999.0000,12.0,12.1,-999.0000
2022-01-15 20:15:00,2022-01-15 12:15:00,0.6294,41.07,-999.00,3.3000,3.3000,1.8950,0.9,-999,-999.0,99.8,,95,1.57,2.01,-999,8.0400,0.374,13.6756,13.9480,12.2,12.4,-999.0000
2022-01-15 20:30:00,2022-01-15 12:30:00,-999.0000,41.07,-999.00,3.2000,3.2000,-999.0000,1.3,-999,-999.0,100.0,,74,1.57,2.68,-999,-999.0000,0.394,13.6727,-999.0000,12.2,12.4,-999.0000
2022-01-15 20:45:00,2022-01-15 12:45:00,-999.0000,41.07,-999.00,3.1000,3.1000,-999.0000,1.8,-999,-999.0,99.5,,78,1.34,2.24,-999,-999.0000,0.400,13.6727,-999.0000,12.1,12.2,-999.0000
2022-01-15 21:00:00,2022-01-15 13:00:00,-999.0000,41.07,-999.00,3.5000,3.5000,-999.0000,1.8,-999,-999.0,100.0,,91,1.57,2.46,-999,-999.0000,0.399,13.6713,-999.0000,12.0,12.1,-999.0000
2022-01-15 21:15:00,2022-01-15 13:15:00,-999.0000,41.07,-999.00,3.2000,3.2000,-999.0000,1.8,-999,-999.0,100.0,,78,1.34,1.79,-999,-999.0000,0.400,13.6684,-999.0000,11.9,11.9,-999.0000
2022-01-15 21:30:00,2022-01-15 13:30:00,-999.0000,41.07,-999.00,2.9000,2.9000,-999.0000,2.0,-999,-999.0,100.0,,87,1.57,2.01,-999,-999.0000,0.401,13.6655,-999.0000,11.8,11.9,-999.0000
2022-01-15 21:45:00,2022-01-15 13:45:00,-999.0000,41.07,-999.00,3.3000,3.3000,-999.0000,1.8,-999,-999.0,100.0,,97,1.79,2.68,-999,-999.0000,0.400,13.6655,-999.0000,11.8,11.9,-999.0000
2022-01-15 22:00:00,2022-01-15 14:00:00,-999.0000,41.07,-999.00,3.2000,3.2000,-999.0000,1.8,-999,-999.0,100.0,,90,1.57,2.01,-999,-999.0000,0.401,13.6611,-999.0000,11.8,11.8,-999.0000
2022-01-15 22:15:00,2022-01-15 14:15:00,-999.0000,41.07,-999.00,3.5000,3.5000,-999.0000,1.8,-999,-999.0,100.0,,89,1.57,2.46,-999,-999.0000,0.403,13.6597,-999.0000,11.8,11.9,-999.0000
2022-01-15 22:30:00,2022-01-15 14:30:00,-999.0000,41.07,-999.00,3.5000,3.5000,-999.0000,2.0,-999,-999.0,100.0,,92,1.57,2.01,-999,-999.0000,0.404,13.6582,-999.0000,11.8,11.9,-999.0000
2022-01-15 22:45:00,2022-01-15 14:45:00,-999.0000,41.07,-999.00,3.2000,3.2000,-999.0000,2.0,-999,-999.0,100.0,,82,1.34,2.01,-999,-999.0000,0.404,13.6582,-999.0000,11.8,11.9,-999.0000
2022-01-15 23:00:00,2022-01-15 15:00:00,-999.0000,41.07,-999.00,2.8000,2.8000,-999.0000,2.0,-999,-999.0,100.0,,63,1.34,1.79,-999,-999.0000,0.405,13.6582,-999.0000,11.8,11.8,-999.0000
2022-01-15 23:15:00,2022-01-15 15:15:00,-999.0000,41.07,559.50,2.5000,2.5000,-999.0000,1.8,-999,-999.0,100.0,,64,1.34,2.01,-999,-999.0000,0.404,13.6611,-999.0000,11.8,11.8,-999.0000
2022-01-15 23:30:00,2022-01-15 15:30:00,0.6306,41.07,-999.00,2.3000,2.3000,1.9770,2.0,-999,-999.0,100.0,,52,1.34,2.91,-999,8.0160,0.405,13.6611,13.9340,11.7,11.8,-999.0000
2022-01-15 23:45:00,2022-01-15 15:45:00,0.6296,41.07,-999.00,2.1000,2.1000,1.9810,1.8,-999,-999.0,100.0,,52,1.57,3.13,-999,8.0150,0.403,13.6626,13.9350,11.7,11.8,-999.0000
2022-01-16 00:00:00,2022-01-15 16:00:00,0.6327,41.07,-999.00,1.8000,1.8000,1.9800,1.6,-999,-999.0,100.0,,48,2.24,4.25,-999,8.0280,0.404,13.6582,13.9320,11.7,11.7,-999.0000
2022-01-16 00:15:00,2022-01-15 16:15:00,-999.0000,41.07,-999.00,1.6000,1.6000,-999.0000,1.3,-999,-999.0,100.0,,63,0.89,2.24,-999,-999.0000,0.403,13.6611,-999.0000,11.7,11.7,-999.0000
2022-01-16 00:30:00,2022-01-15 16:30:00,0.6273,41.07,-999.00,1.2000,1.2000,1.9760,1.1,-999,-999.0,100.0,,45,1.79,3.36,-999,8.0130,0.404,13.6626,13.9340,11.6,11.6,-999.0000
2022-01-16 00:45:00,2022-01-15 16:45:00,-999.0000,41.07,-999.00,0.9000,0.9000,-999.0000,0.7,-999,-999.0,100.0,,49,1.57,2.91,-999,-999.0000,0.401,13.6640,-999.0000,11.6,11.6,-999.0000
2022-01-16 01:00:00,2022-01-15 17:00:00,0.6241,41.07,-999.00,0.7000,0.7000,1.9700,0.4,-999,-999.0,100.0,,59,1.12,2.46,-999,7.9890,0.402,13.6669,13.9370,11.6,9.2,-999.0000
2022-01-16 01:15:00,2022-01-15 17:15:00,0.6254,41.07,-999.00,0.5000,0.5000,1.9660,0.1,-999,-999.0,100.0,,48,1.79,2.91,-999,7.9950,0.402,13.6684,13.9390,11.6,1.6,-999.0000
2022-01-16 01:30:00,2022-01-15 17:30:00,-999.0000,41.07,-999.00,0.3000,0.3000,-999.0000,0.1,-999,-999.0,100.0,,50,1.57,3.13,-999,-999.0000,0.403,13.6698,-999.0000,11.6,0.2,-999.0000
2022-01-16 01:45:00,2022-01-15 17:45:00,-999.0000,41.07,-999.00,0.3000,0.3000,-999.0000,-0.1,-999,-999.0,100.0,,44,2.24,3.58,-999,-999.0000,0.404,13.6684,-999.0000,11.6,0.0,-999.0000
2022-01-16 02:00:00,2022-01-15 18:00:00,-999.0000,41.07,-999.00,0.1000,0.1000,-999.0000,-0.5,-999,-999.0,100.0,,65,1.12,1.79,-999,-999.0000,0.402,13.6684,-999.0000,11.6,0.0,-999.0000
2022-01-16 02:15:00,2022-01-15 18:15:00,0.6313,41.07,565.20,0.0000,0.0000,1.9510,-0.6,2.1,-999.0,100.0,,42,2.01,3.58,-999,7.9720,0.408,13.6698,13.9430,11.6,0.1,-999.0000
2022-01-16 02:30:00,2022-01-15 18:30:00,0.6279,41.07,565.00,-0.2000,-0.2000,1.9470,-0.8,2.1,-999.0,100.0,,62,1.34,2.46,-999,7.9800,0.412,13.6713,13.9430,11.6,0.1,-999.0000
2022-01-16 02:45:00,2022-01-15 18:45:00,0.6267,41.07,565.00,-0.1000,-0.1000,1.9440,-1.0,2.1,-999.0,100.0,,41,1.79,3.36,-999,7.9740,0.409,13.6698,13.9410,11.6,0.1,-999.0000
2022-01-16 03:00:00,2022-01-15 19:00:00,0.6311,41.07,565.20,-0.2000,-0.2000,1.9400,-1.0,2.1,-999.0,100.0,,55,1.57,2.91,-999,7.9710,0.412,13.6669,13.9400,11.6,0.1,-999.0000
2022-01-16 03:15:00,2022-01-15 19:15:00,0.6252,41.07,565.00,-0.2000,-0.2000,1.9370,-1.1,2.1,-999.0,100.0,,64,1.34,3.13,-999,7.9680,0.411,13.6655,13.9360,11.6,0.1,-999.0000
2022-01-16 03:30:00,2022-01-15 19:30:00,0.6288,41.07,564.90,-0.2000,-0.2000,1.9340,-1.1,2.1,-999.0,100.0,,56,1.79,4.03,-999,7.9570,0.414,13.6669,13.9390,11.6,0.1,-999.0000
2022-01-16 03:45:00,2022-01-15 19:45:00,0.6275,41.07,564.60,-0.3000,-0.3000,1.9300,-1.1,2.1,-999.0,100.0,,62,1.34,3.58,-999,7.9560,0.407,13.6655,13.9370,11.6,0.1,-999.0000
2022-01-16 04:00:00,2022-01-15 20:00:00,0.6275,41.07,564.30,-0.3000,-0.3000,1.9270,-1.5,2.1,-999.0,100.0,,65,1.57,2.01,-999,7.9500,0.410,13.6655,13.9370,11.5,0.1,-999.0000
2022-01-16 04:15:00,2022-01-15 20:15:00,0.6275,41.07,564.30,-0.3000,-0.3000,1.9240,-1.5,2.1,-999.0,100.0,,50,1.79,4.25,-999,7.9480,0.408,13.6655,13.9370,11.6,0.1,-999.0000
2022-01-16 04:30:00,2022-01-15 20:30:00,0.6308,41.07,564.30,-0.2000,-0.2000,1.9200,-1.5,2.1,-999.0,100.0,,44,2.24,4.70,-999,7.9550,0.409,13.6640,13.9370,11.5,0.1,-999.0000
2022-01-16 04:45:00,2022-01-15 20:45:00,0.6252,41.07,564.60,-0.3000,-0.3000,1.9180,-1.5,2.1,-999.0,100.0,,60,1.34,3.13,-999,7.9450,0.412,13.6655,13.9360,11.5,0.1,-999.0000
2022-01-16 05:00:00,2022-01-15 21:00:00,0.6252,41.07,564.40,-0.4000,-0.4000,1.9150,-1.7,2.1,-999.0,100.0,,53,1.57,2.68,-999,7.9380,0.416,13.6655,13.9360,11.6,0.1,-999.0000
2022-01-16 05:15:00,2022-01-15 21:15:00,0.6308,41.07,564.40,-0.4000,-0.4000,1.9110,-1.8,2.1,-999.0,100.0,,51,1.57,2.68,-999,7.9350,0.409,13.6640,13.9370,11.5,0.1,-999.0000
2022-01-16 05:30:00,2022-01-15 21:30:00,0.6273,41.07,564.20,-0.5000,-0.5000,1.9090,-1.7,2.1,-999.0,100.0,,64,1.12,2.01,-999,7.9420,0.406,13.6626,13.9340,11.5,0.1,-999.0000
2022-01-16 05:45:00,2022-01-15 21:45:00,0.6249,41.07,564.10,-0.4000,-0.4000,1.9060,-1.7,2.1,-999.0,100.0,,52,1.57,3.80,-999,7.9190,0.411,13.6626,13.9330,11.5,0.1,-999.0000
2022-01-16 06:00:00,2022-01-15 22:00:00,0.6239,41.07,564.00,-0.5000,-0.5000,1.9040,-1.8,2.1,-999.0,100.0,,52,1.34,2.24,-999,7.9260,0.412,13.6640,13.9340,11.5,0.1,-999.0000
2022-01-16 06:15:00,2022-01-15 22:15:00,0.6273,41.07,564.20,-0.5000,-0.5000,1.9020,-1.8,2.1,-999.0,100.0,,59,1.34,2.46,-999,7.9230,0.378,13.6626,13.9340,11.5,0.1,-999.0000
2022-01-16 06:30:00,2022-01-15 22:30:00,0.6239,41.07,564.30,-0.5000,-0.5000,1.8990,-1.8,2.1,-999.0,100.0,,55,1.34,2.01,-999,7.9300,0.395,13.6640,13.9340,11.5,0.1,-999.0000
2022-01-16 06:45:00,2022-01-15 22:45:00,0.6285,41.07,564.10,-0.5000,-0.5000,1.8970,-1.8,2.1,-999.0,100.0,,55,1.57,2.46,-999,7.9240,0.404,13.6640,13.9360,11.5,0.1,-999.0000
2022-01-16 07:00:00,2022-01-15 23:00:00,0.6283,41.07,563.90,-0.5000,-0.5000,1.8950,-1.8,2.1,-999.0,100.0,,59,1.34,2.01,-999,7.9160,0.400,13.6611,13.9330,11.5,0.1,-999.0000
2022-01-16 07:15:00,2022-01-15 23:15:00,0.6293,41.07,564.00,-0.4000,-0.4000,1.8940,-1.8,2.1,-999.0,100.0,,47,1.79,3.58,-999,7.9050,0.398,13.6597,13.9320,11.5,0.1,-999.0000
2022-01-16 07:30:00,2022-01-15 23:30:00,0.6304,41.07,564.00,-0.5000,-0.5000,1.8920,-1.7,2.1,-999.0,100.0,,60,1.34,2.24,-999,7.9090,0.389,13.6582,13.9310,11.5,0.1,-999.0000
2022-01-16 07:45:00,2022-01-15 23:45:00,0.6268,41.07,563.70,-0.5000,-0.5000,1.8900,-1.7,2.1,-999.0,100.0,,60,1.34,2.24,-999,7.9120,0.367,13.6568,13.9280,11.5,0.1,-999.0000
2022-01-16 08:00:00,2022-01-16 00:00:00,0.6293,41.07,563.80,-0.5000,-0.5000,1.8890,-1.8,2.1,-999.0,100.0,,56,1.34,2.68,-999,7.9130,0.375,13.6597,13.9320,11.5,0.1,-999.0000
2022-01-16 08:15:00,2022-01-16 00:15:00,0.6261,41.07,563.90,-0.6000,-0.6000,1.8880,-2.0,2,-999.0,100.0,,84,1.34,2.24,-999,7.9160,0.364,13.6481,13.9190,11.5,0.1,-999.0000
2022-01-16 08:30:00,2022-01-16 00:30:00,0.6259,41.07,563.90,-0.7000,-0.7000,1.8870,-1.8,2,-999.0,100.0,,57,1.34,3.13,-999,7.9120,0.374,13.6452,13.9160,11.5,0.1,-999.0000
2022-01-16 08:45:00,2022-01-16 00:45:00,0.6245,41.07,564.30,-0.7000,-0.7000,1.8850,-2.0,2,-999.0,100.0,,42,2.24,4.25,-999,7.9120,0.400,13.6568,13.9270,11.5,0.1,-999.0000
2022-01-16 09:00:00,2022-01-16 01:00:00,0.6307,41.07,564.50,-0.8000,-0.8000,1.8840,-2.2,2,-999.0,100.0,,61,1.12,3.13,-999,7.9100,0.400,13.6481,13.9210,11.5,0.1,-999.0000
2022-01-16 09:15:00,2022-01-16 01:15:00,0.6284,41.07,564.60,-0.8000,-0.8000,1.8830,-2.4,2,-999.0,100.0,,57,1.57,2.68,-999,7.9180,0.407,13.6481,13.9200,11.5,0.1,-999.0000
2022-01-16 09:30:00,2022-01-16 01:30:00,0.6238,41.07,564.50,-0.7000,-0.7000,1.8820,-2.2,2,-999.0,100.0,,47,2.01,4.03,-999,7.9100,0.406,13.6481,13.9180,11.5,0.1,-999.0000
2022-01-16 09:45:00,2022-01-16 01:45:00,0.6207,41.07,564.50,-0.8000,-0.8000,1.8800,-2.2,2,-999.0,100.0,,54,1.34,2.01,-999,7.9200,0.400,13.6524,13.9210,11.5,0.1,-999.0000
2022-01-16 10:00:00,2022-01-16 02:00:00,0.6240,41.07,562.30,-0.8000,-0.8000,1.8780,-2.4,2,-999.0,100.0,,49,1.57,4.03,-999,7.9210,0.405,13.6510,13.9210,11.5,0.1,-999.0000
2022-01-16 10:15:00,2022-01-16 02:15:00,0.6259,41.07,563.10,-0.9000,-0.9000,1.8770,-2.5,2,-999.0,100.0,,60,1.57,2.68,-999,7.9250,0.409,13.6452,13.9160,11.5,0.1,-999.0000
2022-01-16 10:30:00,2022-01-16 02:30:00,0.6271,41.07,563.30,-0.8000,-0.8000,1.8750,-2.4,2,-999.0,100.0,,48,1.79,3.58,-999,7.9230,0.408,13.6466,13.9180,11.5,0.1,-999.0000
2022-01-16 10:45:00,2022-01-16 02:45:00,0.6259,41.07,563.50,-0.6000,-0.6000,1.8740,-2.4,2,-999.0,100.0,,48,1.79,3.36,-999,7.9260,0.405,13.6452,13.9160,11.5,0.1,-999.0000
2022-01-16 11:00:00,2022-01-16 03:00:00,0.6269,41.07,563.40,-0.8000,-0.8000,1.8720,-2.4,2,-999.0,100.0,,51,1.79,2.68,-999,7.9280,0.410,13.6437,13.9150,11.5,0.1,-999.0000
2022-01-16 11:15:00,2022-01-16 03:15:00,0.6256,41.07,563.40,-0.8000,-0.8000,1.8700,-2.5,2,-999.0,100.0,,46,1.57,2.91,-999,7.9190,0.403,13.6422,13.9130,11.5,0.1,-999.0000
2022-01-16 11:30:00,2022-01-16 03:30:00,0.6210,41.07,563.10,-0.8000,-0.8000,1.8690,-2.4,2,-999.0,100.0,,60,1.34,2.46,-999,7.9200,0.405,13.6422,13.9110,11.5,0.0,-999.0000
2022-01-16 11:45:00,2022-01-16 03:45:00,0.6254,41.07,563.30,-0.9000,-0.9000,1.8660,-2.4,2,-999.0,100.0,,44,2.24,4.47,-999,7.9320,0.406,13.6393,13.9100,11.5,0.0,-999.0000
2022-01-16 12:00:00,2022-01-16 04:00:00,0.6265,41.07,562.90,-0.9000,-0.9000,1.8650,-2.5,2,-999.0,100.0,,53,1.79,4.03,-999,7.9230,0.404,13.6379,13.9090,11.5,0.0,-999.0000
2022-01-16 12:15:00,2022-01-16 04:15:00,0.6277,41.07,562.80,-0.9000,-0.9000,1.8640,-2.5,2,-999.0,100.0,,44,1.79,3.58,-999,7.9170,0.406,13.6393,13.9110,11.5,0.0,-999.0000
2022-01-16 12:30:00,2022-01-16 04:30:00,0.6254,41.07,563.00,-0.7000,-0.7000,1.8630,-2.4,2,-999.0,100.0,,47,1.79,3.36,-999,7.9260,0.410,13.6393,13.9100,11.5,0.0,-999.0000
2022-01-16 12:45:00,2022-01-16 04:45:00,0.6218,41.07,562.90,-0.8000,-0.8000,1.8620,-2.2,2,-999.0,100.0,,66,1.34,2.01,-999,7.9130,0.408,13.6379,13.9070,11.5,0.0,-999.0000
2022-01-16 13:00:00,2022-01-16 05:00:00,0.6250,41.07,562.90,-0.7000,-0.7000,1.8610,-2.2,2,-999.0,100.0,,57,1.57,2.46,-999,7.9250,0.403,13.6335,13.9040,11.5,0.0,-999.0000
2022-01-16 13:15:00,2022-01-16 05:15:00,0.6260,41.07,563.80,-0.6000,-0.6000,1.8590,-2.2,2,-999.0,100.0,,54,1.79,4.47,-999,7.9280,0.404,13.6321,13.9030,11.5,0.0,-999.0000
2022-01-16 13:30:00,2022-01-16 05:30:00,0.6283,41.07,565.50,-0.4000,-0.4000,1.8580,-1.8,2,-999.0,100.0,,47,2.01,4.92,-999,7.9170,0.405,13.6321,13.9040,11.5,0.0,-999.0000
2022-01-16 13:45:00,2022-01-16 05:45:00,0.6237,41.07,565.60,-0.4000,-0.4000,1.8580,-1.8,2,-999.0,100.0,,50,1.57,2.68,-999,7.9150,0.403,13.6321,13.9020,11.5,0.0,-999.0000
2022-01-16 14:00:00,2022-01-16 06:00:00,0.6270,41.07,566.20,-0.4000,-0.4000,1.8570,-1.8,2,-999.0,100.0,,57,1.34,4.70,-999,7.9200,0.404,13.6306,13.9020,11.5,0.0,-999.0000
2022-01-16 14:15:00,2022-01-16 06:15:00,0.6235,41.07,566.20,-0.4000,-0.4000,1.8580,-1.7,2,-999.0,100.0,,61,1.34,2.46,-999,7.9100,0.405,13.6292,13.8990,11.5,0.0,-999.0000
2022-01-16 14:30:00,2022-01-16 06:30:00,0.6258,41.07,566.80,-0.3000,-0.3000,1.8570,-1.5,2,-999.0,100.0,,46,1.79,3.58,-999,7.9080,0.405,13.6292,13.9000,11.5,0.0,-999.0000
2022-01-16 14:45:00,2022-01-16 06:45:00,0.6235,41.07,567.10,-0.1000,-0.1000,1.8580,-1.3,2,-999.0,100.0,,55,1.12,4.25,-999,7.9100,0.405,13.6292,13.8990,11.5,0.0,-999.0000
2022-01-16 15:00:00,2022-01-16 07:00:00,0.6235,41.07,566.30,0.0000,0.0000,1.8580,-1.3,2,-999.0,100.0,,61,1.12,1.79,-999,7.9150,0.404,13.6292,13.8990,11.5,0.1,-999.0000
2022-01-16 15:15:00,2022-01-16 07:15:00,0.6235,41.07,565.90,0.0000,0.0000,1.8600,-1.1,2,-999.0,100.0,,51,0.89,2.01,-999,7.9040,0.403,13.6292,13.8990,11.5,0.6,-999.0000
2022-01-16 15:30:00,2022-01-16 07:30:00,0.6224,41.07,566.10,-0.1000,-0.1000,1.8610,-1.0,2,-999.0,100.0,,69,1.34,3.13,-999,7.8990,0.403,13.6306,13.9000,11.5,6.7,-999.0000
2022-01-16 15:45:00,2022-01-16 07:45:00,0.6201,41.07,568.30,-0.1000,-0.1000,1.8630,-1.0,2.1,-999.0,100.0,,55,1.34,3.36,-999,7.8980,0.406,13.6306,13.8990,11.5,11.4,-999.0000
2022-01-16 16:00:00,2022-01-16 08:00:00,0.6235,41.07,568.10,-0.1000,-0.1000,1.8640,-1.0,2.1,-999.0,100.0,,71,1.12,2.01,-999,7.9030,0.417,13.6292,13.8990,11.5,11.5,-999.0000
2022-01-16 16:15:00,2022-01-16 08:15:00,0.6247,41.07,568.20,-0.1000,-0.1000,1.8650,-1.1,2.1,-999.0,100.0,,60,1.34,3.36,-999,7.8950,0.404,13.6306,13.9010,11.5,11.5,-999.0000
2022-01-16 16:30:00,2022-01-16 08:30:00,0.6235,41.07,568.70,0.0000,0.0000,1.8670,-1.0,2.1,-999.0,100.0,,40,2.01,4.70,-999,7.8960,0.405,13.6292,13.8990,11.6,11.6,-999.0000
2022-01-16 16:45:00,2022-01-16 08:45:00,0.6258,41.07,568.10,0.1000,0.1000,1.8680,-1.0,2.1,-999.0,100.0,,51,1.79,3.80,-999,7.8930,0.405,13.6292,13.9000,11.6,11.6,-999.0000
2022-01-16 17:00:00,2022-01-16 09:00:00,0.6266,41.07,568.20,0.2000,0.2000,1.8710,-1.0,2.1,-999.0,100.0,,51,1.79,4.92,-999,7.8910,0.409,13.6248,13.8960,11.6,11.6,-999.0000
2022-01-16 17:15:00,2022-01-16 09:15:00,0.6243,41.07,568.30,0.2000,0.2000,1.8720,-1.0,2.1,-999.0,100.0,,55,1.79,4.03,-999,7.8910,0.403,13.6248,13.8950,11.6,11.7,-999.0000
2022-01-16 17:30:00,2022-01-16 09:30:00,0.6251,41.07,568.20,0.4000,0.4000,1.8750,-0.6,2.1,-999.0,100.0,,56,1.79,4.92,-999,7.8880,0.403,13.6205,13.8910,11.7,11.8,-999.0000
2022-01-16 17:45:00,2022-01-16 09:45:00,0.6228,41.07,568.40,0.6000,0.6000,1.8770,-0.6,2.1,-999.0,100.0,,65,1.79,3.13,-999,7.8770,0.406,13.6205,13.8900,11.9,11.9,-999.0000
2022-01-16 18:00:00,2022-01-16 10:00:00,0.6215,41.08,568.20,1.1000,1.1000,1.8780,-0.3,2.1,-999.0,100.0,,60,2.01,4.25,-999,7.8810,0.400,13.6190,13.8880,11.8,11.9,-999.0000
2022-01-16 18:15:00,2022-01-16 10:15:00,0.6184,41.08,568.50,0.9000,0.9000,1.8820,-0.3,2.1,-999.0,100.0,,79,2.01,4.03,-999,7.8770,0.407,13.6234,13.8910,11.9,12.0,-999.0000
2022-01-16 18:30:00,2022-01-16 10:30:00,0.6220,41.08,568.40,1.6000,1.6000,1.8840,0.1,2.1,-999.0,100.0,,73,1.34,3.58,-999,7.8770,0.400,13.6248,13.8940,12.0,12.1,-999.0000
2022-01-16 18:45:00,2022-01-16 10:45:00,0.6238,41.08,568.60,2.7000,2.7000,1.8890,0.4,2.1,-999.0,100.0,,52,2.01,5.14,-999,7.8760,0.395,13.6190,13.8890,12.2,12.4,-999.0000
2022-01-16 19:00:00,2022-01-16 11:00:00,-999.0000,41.08,568.50,2.4000,2.4000,-999.0000,0.9,2.2,-999.0,100.0,,72,2.24,4.92,-999,-999.0000,0.401,13.6176,-999.0000,12.0,12.1,-999.0000
2022-01-16 19:15:00,2022-01-16 11:15:00,0.6225,41.08,568.60,2.7000,2.7000,1.9010,1.1,2.2,-999.0,100.0,,0,0.00,1.57,-999,7.8790,0.404,13.6176,13.8870,12.0,12.0,-999.0000
2022-01-16 19:30:00,2022-01-16 11:30:00,0.6192,41.08,568.90,3.3000,3.3000,1.9080,1.4,-999,-999.0,100.0,,66,1.34,1.79,-999,7.8750,0.396,13.6190,13.8870,12.2,12.4,-999.0000
2022-01-16 19:45:00,2022-01-16 11:45:00,0.6169,41.08,-999.00,3.7000,3.5000,1.9160,2.0,-999,-999.0,98.6,,74,1.34,2.24,-999,7.8690,0.396,13.6190,13.8860,12.3,12.7,-999.0000
2022-01-16 20:00:00,2022-01-16 12:00:00,-999.0000,41.08,570.40,4.2000,3.8000,-999.0000,2.5,-999,-999.0,97.9,,88,1.57,2.01,-999,-999.0000,0.403,13.6161,-999.0000,12.1,12.2,-999.0000
2022-01-16 20:15:00,2022-01-16 12:15:00,-999.0000,41.08,570.10,4.5000,4.1000,-999.0000,2.8,2.3,-999.0,97.5,,94,1.79,2.24,-999,-999.0000,0.402,13.6147,-999.0000,12.4,13.0,-999.0000
2022-01-16 20:30:00,2022-01-16 12:30:00,-999.0000,41.08,-999.00,4.5000,4.2000,-999.0000,3.5,-999,-999.0,97.7,,89,1.79,2.46,-999,-999.0000,0.392,13.6132,-999.0000,12.2,12.5,-999.0000
2022-01-16 20:45:00,2022-01-16 12:45:00,0.6244,41.08,570.10,3.9000,3.9000,1.9490,3.5,-999,-999.0,100.0,,82,1.57,2.24,-999,7.8840,0.402,13.6118,13.8820,12.2,12.3,-999.0000
2022-01-16 21:00:00,2022-01-16 13:00:00,-999.0000,41.08,574.70,3.2000,3.1000,-999.0000,3.3,2.3,-999.0,99.3,,56,1.79,3.13,-999,-999.0000,0.404,13.6089,-999.0000,12.0,12.1,-999.0000
2022-01-16 21:15:00,2022-01-16 13:15:00,0.6195,41.08,574.70,2.9000,2.9000,1.9670,3.0,2.3,-999.0,100.0,,59,1.57,2.68,-999,7.8850,0.404,13.6089,13.8770,12.0,12.1,-999.0000
2022-01-16 21:30:00,2022-01-16 13:30:00,0.6180,41.08,574.60,2.9000,2.9000,1.9730,3.0,2.3,-999.0,100.0,,45,2.68,4.25,-999,7.8870,0.407,13.6045,13.8720,12.1,12.2,-999.0000
2022-01-16 21:45:00,2022-01-16 13:45:00,0.6178,41.08,574.80,3.1000,3.1000,1.9780,3.0,2.3,-999.0,100.0,,75,1.12,2.24,-999,7.8770,0.406,13.6016,13.8690,12.1,12.2,-999.0000
2022-01-16 22:00:00,2022-01-16 14:00:00,0.6174,41.08,-999.00,3.2000,3.2000,1.9830,3.0,-999,-999.0,100.0,,78,1.57,3.80,-999,7.8930,0.397,13.5958,13.8630,12.1,12.2,-999.0000
2022-01-16 22:15:00,2022-01-16 14:15:00,0.6184,41.08,574.40,3.7000,3.6000,1.9870,3.2,2.3,-999.0,99.5,,49,2.46,4.47,-999,7.8890,0.418,13.5944,13.8620,12.1,12.1,-999.0000
2022-01-16 22:30:00,2022-01-16 14:30:00,0.6238,41.08,574.30,3.8000,3.5000,1.9920,3.5,2.3,-999.0,98.5,,55,2.24,4.92,-999,7.8930,0.400,13.5900,13.8600,12.0,12.0,-999.0000
2022-01-16 22:45:00,2022-01-16 14:45:00,0.6192,41.08,574.10,3.5000,3.5000,1.9980,3.8,2.3,-999.0,100.0,,64,1.57,2.91,-999,7.8760,0.401,13.5900,13.8580,12.0,12.0,-999.0000
2022-01-16 23:00:00,2022-01-16 15:00:00,0.6192,41.08,574.10,3.4000,3.4000,2.0040,3.7,2.3,-999.0,99.5,,48,1.57,3.36,-999,7.8900,0.401,13.5900,13.8580,12.0,12.0,-999.0000
2022-01-16 23:15:00,2022-01-16 15:15:00,-999.0000,41.08,574.30,3.3000,3.3000,-999.0000,3.5,2.3,-999.0,100.0,,51,1.57,2.91,-999,-999.0000,0.404,13.5871,-999.0000,11.9,11.9,-999.0000
2022-01-16 23:30:00,2022-01-16 15:30:00,0.6223,41.08,574.60,2.9000,2.9000,2.0140,3.7,2.3,-999.0,100.0,,50,1.79,4.03,-999,7.8910,0.406,13.5857,13.8550,11.9,11.9,-999.0000
2022-01-16 23:45:00,2022-01-16 15:45:00,0.6188,41.08,574.60,2.7000,2.7000,2.0190,3.5,2.3,-999.0,100.0,,50,1.57,4.47,-999,7.9050,0.407,13.5842,13.8520,11.8,11.8,-999.0000
2022-01-17 00:00:00,2022-01-16 16:00:00,0.6215,41.08,575.50,2.5000,2.5000,2.0230,3.2,2.3,-999.0,100.0,,55,1.57,3.36,-999,7.8920,0.406,13.5900,13.8590,11.8,11.8,-999.0000
2022-01-17 00:15:00,2022-01-16 16:15:00,0.6159,41.08,-999.00,2.3000,2.3000,2.0260,2.8,-999,-999.0,100.0,,61,1.34,4.25,-999,7.8970,0.407,13.5915,13.8580,11.8,11.8,-999.0000
2022-01-17 00:30:00,2022-01-16 16:30:00,0.6228,41.08,-999.00,1.9000,1.9000,2.0270,2.6,-999,-999.0,100.0,,69,1.34,3.13,-999,7.8910,0.406,13.5915,13.8610,11.7,11.7,-999.0000
2022-01-17 00:45:00,2022-01-16 16:45:00,-999.0000,41.08,-999.00,1.6000,1.6000,-999.0000,2.5,-999,-999.0,100.0,,67,1.34,3.13,-999,-999.0000,0.405,13.5944,-999.0000,11.7,11.7,-999.0000
2022-01-17 01:00:00,2022-01-16 17:00:00,0.6218,41.08,577.30,1.5000,1.5000,2.0270,1.8,2.2,-999.0,100.0,,43,2.91,5.14,-999,7.8960,0.407,13.5929,13.8620,11.7,11.6,-999.0000
2022-01-17 01:15:00,2022-01-16 17:15:00,-999.0000,41.08,577.30,1.2000,1.2000,-999.0000,1.4,2.2,-999.0,100.0,,66,1.57,3.13,-999,-999.0000,0.404,13.5915,-999.0000,11.7,2.4,-999.0000
2022-01-17 01:30:00,2022-01-16 17:30:00,0.6215,41.08,577.10,1.1000,1.1000,2.0230,1.3,-999,-999.0,100.0,,57,1.79,4.47,-999,7.8840,0.405,13.5900,13.8590,11.7,0.2,-999.0000
2022-01-17 01:45:00,2022-01-16 17:45:00,0.6226,41.08,-999.00,0.9000,0.9000,2.0200,1.1,-999,-999.0,100.0,,57,1.57,3.36,-999,7.8820,0.404,13.5886,13.8580,11.7,0.0,-999.0000
2022-01-17 02:00:00,2022-01-16 18:00:00,-999.0000,41.08,577.10,0.9000,0.9000,-999.0000,0.9,2.2,-999.0,100.0,,49,1.79,4.70,-999,-999.0000,0.403,13.5886,-999.0000,11.6,0.0,-999.0000
2022-01-17 02:15:00,2022-01-16 18:15:00,-999.0000,41.08,577.00,0.9000,0.9000,-999.0000,0.6,2.2,-999.0,100.0,,56,1.79,4.25,-999,-999.0000,0.403,13.5857,-999.0000,11.7,0.0,-999.0000
2022-01-17 02:30:00,2022-01-16 18:30:00,0.6234,41.08,575.80,0.9000,0.9000,2.0090,0.4,-999,-999.0,100.0,,49,2.24,4.92,-999,7.8750,0.403,13.5842,13.8540,11.6,0.0,-999.0000
2022-01-17 02:45:00,2022-01-16 18:45:00,0.6188,41.08,576.00,0.8000,0.8000,2.0050,0.4,2.2,-999.0,100.0,,68,1.57,3.36,-999,7.8810,0.400,13.5842,13.8520,11.6,0.0,-999.0000
2022-01-17 03:00:00,2022-01-16 19:00:00,0.6200,41.08,575.70,0.7000,0.7000,2.0010,0.1,2.2,-999.0,100.0,,56,1.79,3.13,-999,7.8730,0.401,13.5857,13.8540,11.6,0.1,-999.0000
2022-01-17 03:15:00,2022-01-16 19:15:00,0.6200,41.08,575.50,0.7000,0.7000,1.9970,0.1,2.2,-999.0,100.0,,42,3.13,6.26,-999,7.8690,0.401,13.5857,13.8540,11.6,0.1,-999.0000
2022-01-17 03:30:00,2022-01-16 19:30:00,0.6234,41.08,575.70,0.7000,0.7000,1.9930,0.1,2.2,-999.0,100.0,,50,2.24,4.47,-999,7.8640,0.401,13.5842,13.8540,11.6,0.0,-999.0000
2022-01-17 03:45:00,2022-01-16 19:45:00,0.6211,41.08,575.60,0.7000,0.7000,1.9890,0.1,2.2,-999.0,100.0,,55,2.01,4.03,-999,7.8620,0.401,13.5842,13.8530,11.6,0.0,-999.0000
2022-01-17 04:00:00,2022-01-16 20:00:00,0.6211,41.08,-999.00,0.7000,0.7000,1.9860,0.1,-999,-999.0,100.0,,57,2.01,3.58,-999,7.8570,0.402,13.5842,13.8530,11.6,0.1,-999.0000
2022-01-17 04:15:00,2022-01-16 20:15:00,0.6234,41.08,575.10,0.8000,0.8000,1.9830,0.1,2.2,-999.0,100.0,,63,1.79,2.46,-999,7.8650,0.399,13.5842,13.8540,11.6,0.0,-999.0000
2022-01-17 04:30:00,2022-01-16 20:30:00,0.6198,41.08,576.50,0.8000,0.8000,1.9800,0.2,2.1,-999.0,100.0,,62,1.79,3.13,-999,7.8650,0.403,13.5828,13.8510,11.6,0.1,-999.0000
2022-01-17 04:45:00,2022-01-16 20:45:00,0.6185,41.08,576.40,0.8000,0.8000,1.9770,0.1,2.1,-999.0,100.0,,58,1.79,3.36,-999,7.8500,0.403,13.5813,13.8490,11.6,0.1,-999.0000
2022-01-17 05:00:00,2022-01-16 21:00:00,0.6185,41.08,576.30,0.8000,0.8000,1.9740,0.1,2.1,-999.0,100.0,,61,2.01,4.47,-999,7.8630,0.409,13.5813,13.8490,11.6,0.1,-999.0000
2022-01-17 05:15:00,2022-01-16 21:15:00,0.6252,41.08,-999.00,0.8000,0.8000,1.9720,-0.1,-999,-999.0,100.0,,46,2.91,5.37,-999,7.8550,0.406,13.5784,13.8490,11.6,0.1,-999.0000
2022-01-17 05:30:00,2022-01-16 21:30:00,0.6206,41.08,577.20,0.6000,0.6000,1.9700,0.1,-999,-999.0,100.0,,66,1.79,4.25,-999,7.8520,0.406,13.5784,13.8470,11.6,0.1,-999.0000
2022-01-17 05:45:00,2022-01-16 21:45:00,0.6229,41.08,-999.00,0.7000,0.7000,1.9670,-0.1,-999,-999.0,100.0,,60,1.79,2.91,-999,7.8550,0.408,13.5784,13.8480,11.6,0.1,-999.0000
2022-01-17 06:00:00,2022-01-16 22:00:00,0.6206,41.08,-999.00,0.7000,0.7000,1.9660,-0.1,-999,-999.0,100.0,,51,2.46,4.70,-999,7.8620,0.410,13.5784,13.8470,11.6,0.1,-999.0000
2022-01-17 06:15:00,2022-01-16 22:15:00,-999.0000,41.08,-999.00,0.7000,0.7000,-999.0000,-0.3,-999,-999.0,100.0,,59,1.79,3.13,-999,-999.0000,0.410,13.5755,-999.0000,11.6,0.1,-999.0000
2022-01-17 06:30:00,2022-01-16 22:30:00,0.6147,41.08,575.70,0.7000,0.7000,1.9620,-0.1,2.1,-999.0,100.0,,54,2.01,3.36,-999,7.8550,0.410,13.5770,13.8430,11.6,0.1,-999.0000
2022-01-17 06:45:00,2022-01-16 22:45:00,-999.0000,41.08,576.00,0.7000,0.7000,-999.0000,-0.1,2.1,-999.0,100.0,,56,2.24,4.25,-999,-999.0000,0.411,13.5755,-999.0000,11.6,0.1,-999.0000
2022-01-17 07:00:00,2022-01-16 23:00:00,0.6237,41.08,-999.00,0.8000,0.8000,1.9580,-0.1,-999,-999.0,100.0,,69,1.79,4.25,-999,7.8630,0.407,13.5741,13.8440,11.6,0.1,-999.0000
2022-01-17 07:15:00,2022-01-16 23:15:00,0.6191,41.08,575.20,0.8000,0.8000,1.9570,-0.1,2.1,-999.0,100.0,,61,1.79,3.80,-999,7.8560,0.410,13.5741,13.8420,11.6,0.1,-999.0000
2022-01-17 07:30:00,2022-01-16 23:30:00,0.6178,41.08,575.90,0.8000,0.8000,1.9550,0.1,2.1,-999.0,100.0,,63,1.79,3.58,-999,7.8570,0.407,13.5726,13.8400,11.6,0.1,-999.0000
2022-01-17 07:45:00,2022-01-16 23:45:00,0.6199,41.08,576.00,0.7000,0.7000,1.9540,0.1,2.1,-999.0,100.0,,60,2.01,3.58,-999,7.8540,0.411,13.5697,13.8380,11.6,0.1,-999.0000
2022-01-17 08:00:00,2022-01-17 00:00:00,-999.0000,41.08,-999.00,0.8000,0.8000,-999.0000,-0.1,-999,-999.0,100.0,,70,1.57,2.46,-999,-999.0000,0.409,13.5683,-999.0000,11.6,0.1,-999.0000
2022-01-17 08:15:00,2022-01-17 00:15:00,0.6243,41.08,576.00,0.6000,0.6000,1.9530,-0.1,-999,-999.0,100.0,,60,1.79,4.03,-999,7.8520,0.407,13.5668,13.8370,11.6,0.1,-999.0000
2022-01-17 08:30:00,2022-01-17 00:30:00,0.6230,41.08,576.00,0.5000,0.5000,1.9520,-0.1,2.1,-999.0,100.0,,58,2.01,3.80,-999,7.8430,0.407,13.5654,13.8350,11.6,0.1,-999.0000
2022-01-17 08:45:00,2022-01-17 00:45:00,-999.0000,41.08,-999.00,0.5000,0.5000,-999.0000,-0.3,-999,-999.0,100.0,,46,2.01,4.70,-999,-999.0000,0.403,13.5654,-999.0000,11.6,0.1,-999.0000
2022-01-17 09:00:00,2022-01-17 01:00:00,0.6138,41.08,-999.00,0.5000,0.5000,1.9510,-0.3,-999,-999.0,100.0,,45,3.13,6.04,-999,7.8560,0.405,13.5654,13.8310,11.6,0.1,-999.0000
2022-01-17 09:15:00,2022-01-17 01:15:00,0.6205,41.08,-999.00,0.4000,0.4000,1.9490,-0.5,-999,-999.0,100.0,,67,1.79,4.92,-999,7.8580,0.402,13.5625,13.8310,11.6,0.2,-999.0000
2022-01-17 09:30:00,2022-01-17 01:30:00,0.6236,41.08,567.60,0.3000,0.3000,1.9480,-0.5,2.4,-999.0,100.0,,58,1.79,3.58,-999,7.8600,0.397,13.5581,13.8280,11.6,0.1,-999.0000
2022-01-17 09:45:00,2022-01-17 01:45:00,0.6224,41.08,575.40,0.4000,0.4000,1.9490,-0.5,2.3,-999.0,100.0,,54,2.01,4.03,-999,7.8650,0.407,13.5567,13.8260,11.6,0.1,-999.0000
2022-01-17 10:00:00,2022-01-17 02:00:00,0.6188,41.08,575.80,0.4000,0.4000,1.9510,-0.5,2.2,-999.0,100.0,,49,2.68,5.37,-999,7.8640,0.405,13.5552,13.8230,11.6,0.1,-999.0000
2022-01-17 10:15:00,2022-01-17 02:15:00,0.6198,41.08,575.90,0.4000,0.4000,1.9520,-0.5,2.2,-999.0,100.0,,62,2.01,4.47,-999,7.8690,0.406,13.5538,13.8220,11.6,0.1,-999.0000
2022-01-17 10:30:00,2022-01-17 02:30:00,0.6188,41.08,574.60,0.4000,0.4000,1.9510,-0.5,-999,-999.0,100.0,,52,2.24,4.70,-999,7.8660,0.410,13.5552,13.8230,11.6,0.1,-999.0000
2022-01-17 10:45:00,2022-01-17 02:45:00,0.6224,41.08,576.80,0.4000,0.4000,1.9490,-0.5,2.1,-999.0,100.0,,53,2.24,4.47,-999,7.8640,0.406,13.5567,13.8260,11.6,0.1,-999.0000
2022-01-17 11:00:00,2022-01-17 03:00:00,0.6234,41.08,562.80,0.4000,0.4000,1.9470,-0.3,2.1,-999.0,100.0,,71,1.57,2.24,-999,7.8700,0.407,13.5552,13.8250,11.6,0.1,-999.0000
2022-01-17 11:15:00,2022-01-17 03:15:00,0.6198,41.08,563.70,0.4000,0.4000,1.9450,-0.5,2.1,-999.0,100.0,,56,2.01,3.58,-999,7.8690,0.402,13.5538,13.8220,11.6,0.1,-999.0000
2022-01-17 11:30:00,2022-01-17 03:30:00,0.6240,41.08,563.10,0.3000,0.3000,1.9440,-0.5,2.1,-999.0,100.0,,62,2.01,4.25,-999,7.8770,0.388,13.5480,13.8180,11.6,0.1,-999.0000
2022-01-17 11:45:00,2022-01-17 03:45:00,0.6240,41.08,562.70,0.2000,0.2000,1.9420,-0.5,2.1,-999.0,100.0,,55,1.79,3.80,-999,7.8720,0.390,13.5480,13.8180,11.6,0.0,-999.0000
2022-01-17 12:00:00,2022-01-17 04:00:00,0.6204,41.08,563.50,0.5000,0.5000,1.9400,-0.6,2.1,-999.0,100.0,,44,2.91,5.37,-999,7.8830,0.397,13.5465,13.8150,11.6,0.0,-999.0000
2022-01-17 12:15:00,2022-01-17 04:15:00,0.6170,41.08,563.10,0.4000,0.4000,1.9390,-0.5,2.1,-999.0,100.0,,59,2.01,4.25,-999,7.8750,0.370,13.5480,13.8150,11.6,0.1,-999.0000
2022-01-17 12:30:00,2022-01-17 04:30:00,0.6135,41.08,563.40,0.5000,0.5000,1.9370,-0.3,2.1,-999.0,100.0,,51,2.24,4.47,-999,7.8740,0.395,13.5465,13.8120,11.6,0.0,-999.0000
2022-01-17 12:45:00,2022-01-17 04:45:00,0.6191,41.08,563.20,0.5000,0.5000,1.9360,-0.3,2.1,-999.0,100.0,,48,2.91,5.14,-999,7.8730,0.372,13.5451,13.8130,11.6,0.0,-999.0000
2022-01-17 13:00:00,2022-01-17 05:00:00,0.6168,41.08,562.40,0.4000,0.4000,1.9350,-0.5,2.1,-999.0,100.0,,52,2.24,4.03,-999,7.8690,0.368,13.5451,13.8120,11.6,0.0,-999.0000
2022-01-17 13:15:00,2022-01-17 05:15:00,0.6212,41.08,562.50,0.4000,0.4000,1.9340,-0.5,2.1,-999.0,100.0,,59,2.01,4.47,-999,7.8770,0.367,13.5422,13.8110,11.6,0.0,-999.0000
2022-01-17 13:30:00,2022-01-17 05:30:00,0.6222,41.08,562.30,0.3000,0.3000,1.9340,-0.5,2.1,-999.0,100.0,,57,2.24,4.70,-999,7.8780,0.380,13.5407,13.8100,11.6,0.0,-999.0000
2022-01-17 13:45:00,2022-01-17 05:45:00,0.6210,41.08,562.80,0.3000,0.3000,1.9330,-0.5,2.1,-999.0,100.0,,53,2.01,4.25,-999,7.8800,0.367,13.5393,13.8080,11.6,0.0,-999.0000
2022-01-17 14:00:00,2022-01-17 06:00:00,0.6243,41.08,563.10,0.4000,0.4000,1.9320,-0.6,2.1,-999.0,100.0,,53,2.24,4.47,-999,7.8830,0.364,13.5378,13.8080,11.6,0.0,-999.0000
2022-01-17 14:15:00,2022-01-17 06:15:00,0.6174,41.08,563.00,0.4000,0.4000,1.9310,-0.6,2.1,-999.0,100.0,,67,1.79,4.03,-999,7.8800,0.361,13.5378,13.8050,11.6,0.0,-999.0000
2022-01-17 14:30:00,2022-01-17 06:30:00,0.6174,41.08,562.70,0.5000,0.5000,1.9300,-0.3,2.1,-999.0,100.0,,58,1.79,4.03,-999,7.8820,0.361,13.5378,13.8050,11.6,0.0,-999.0000
2022-01-17 14:45:00,2022-01-17 06:45:00,0.6277,41.08,562.70,0.4000,0.4000,1.9290,-0.3,2.1,-999.0,100.0,,67,1.57,3.36,-999,7.8860,0.359,13.5364,13.8080,11.6,0.0,-999.0000
2022-01-17 15:00:00,2022-01-17 07:00:00,0.6187,41.08,562.10,0.4000,0.4000,1.9300,-0.3,2.1,-999.0,100.0,,48,2.24,4.25,-999,7.8840,0.352,13.5393,13.8070,11.6,0.1,-999.0000
2022-01-17 15:15:00,2022-01-17 07:15:00,0.6153,41.08,561.80,0.4000,0.4000,1.9290,-0.5,2.1,-999.0,100.0,,76,1.12,2.01,-999,7.8830,0.341,13.5407,13.8070,11.6,0.9,-999.0000
2022-01-17 15:30:00,2022-01-17 07:30:00,0.6220,41.08,561.80,0.4000,0.4000,1.9290,-0.3,2.1,-999.0,100.0,,54,1.79,4.47,-999,7.8770,0.346,13.5378,13.8070,11.6,8.2,-999.0000
2022-01-17 15:45:00,2022-01-17 07:45:00,0.6210,41.08,561.90,0.4000,0.4000,1.9290,-0.3,2.1,-999.0,100.0,,48,1.34,3.80,-999,7.8740,0.348,13.5393,13.8080,11.6,11.5,-999.0000
2022-01-17 16:00:00,2022-01-17 08:00:00,0.6199,41.08,562.10,0.4000,0.4000,1.9290,-0.5,2.1,-999.0,100.0,,49,1.79,3.80,-999,7.8870,0.337,13.5407,13.8090,11.6,11.6,-999.0000
2022-01-17 16:15:00,2022-01-17 08:15:00,0.6179,41.08,562.00,0.4000,0.4000,1.9290,-0.5,2.1,-999.0,100.0,,42,2.01,4.25,-999,7.8910,0.341,13.5436,13.8110,11.6,11.6,-999.0000
2022-01-17 16:30:00,2022-01-17 08:30:00,0.6212,41.08,562.00,0.4000,0.4000,1.9290,-0.3,2.1,-999.0,100.0,,43,1.79,3.58,-999,7.8850,0.342,13.5422,13.8110,11.6,11.6,-999.0000
2022-01-17 16:45:00,2022-01-17 08:45:00,0.6235,41.08,562.20,0.4000,0.4000,1.9290,-0.3,2.1,-999.0,100.0,,52,1.79,2.68,-999,7.8870,0.337,13.5422,13.8120,11.6,11.6,-999.0000
2022-01-17 17:00:00,2022-01-17 09:00:00,0.6217,41.08,562.30,0.4000,0.4000,1.9290,-0.5,2.1,-999.0,100.0,,55,1.57,2.68,-999,7.8920,0.328,13.5480,13.8170,11.6,11.6,-999.0000
2022-01-17 17:15:00,2022-01-17 09:15:00,0.6183,41.08,561.60,0.6000,0.6000,1.9290,-0.6,2.1,-999.0,100.0,,33,2.91,5.37,-999,7.8940,0.337,13.5494,13.8170,11.7,11.7,-999.0000
2022-01-17 17:30:00,2022-01-17 09:30:00,0.6170,41.08,-999.00,1.1000,1.1000,1.9300,-0.3,-999,-999.0,100.0,,60,1.34,3.13,-999,7.8990,0.331,13.5480,13.8150,11.8,11.9,-999.0000
2022-01-17 17:45:00,2022-01-17 09:45:00,0.6183,41.08,561.90,1.3000,1.3000,1.9300,-0.3,2.1,-999.0,100.0,,63,1.57,2.91,-999,7.8960,0.336,13.5494,13.8170,11.9,11.9,-999.0000
2022-01-17 18:00:00,2022-01-17 10:00:00,0.6116,41.08,562.10,1.8000,1.8000,1.9320,0.1,2.1,-999.0,100.0,,49,1.79,4.70,-999,7.9020,0.392,13.5523,13.8170,11.9,12.0,-999.0000
2022-01-17 18:15:00,2022-01-17 10:15:00,0.6150,41.08,-999.00,2.1000,2.1000,1.9330,0.2,-999,-999.0,100.0,,73,1.12,1.79,-999,7.9010,0.331,13.5509,13.8170,12.0,12.0,-999.0000
2022-01-17 18:30:00,2022-01-17 10:30:00,-999.0000,41.08,562.70,2.4000,2.4000,-999.0000,0.7,2.2,-999.0,100.0,,70,1.79,3.58,-999,-999.0000,0.344,13.5480,-999.0000,11.9,11.9,-999.0000
2022-01-17 18:45:00,2022-01-17 10:45:00,-999.0000,41.08,562.90,3.0000,3.0000,-999.0000,1.1,-999,-999.0,100.0,,50,1.79,3.58,-999,-999.0000,0.388,13.5451,-999.0000,12.2,12.3,-999.0000
2022-01-17 19:00:00,2022-01-17 11:00:00,0.6132,41.08,572.40,4.2000,4.2000,1.9450,1.6,2.2,-999.0,100.0,,82,1.34,1.79,-999,7.8960,0.390,13.5436,13.8090,12.1,12.2,-999.0000
2022-01-17 19:15:00,2022-01-17 11:15:00,-999.0000,41.08,562.50,5.0000,4.6000,-999.0000,2.3,2.2,-999.0,97.1,,96,1.57,2.01,-999,-999.0000,0.391,13.5465,-999.0000,12.3,12.5,-999.0000
2022-01-17 19:30:00,2022-01-17 11:30:00,0.6088,41.08,562.30,4.8000,4.4000,1.9580,2.6,2.2,-999.0,97.1,,87,1.57,2.46,-999,7.9090,0.397,13.5465,13.8100,12.2,12.5,-999.0000
2022-01-17 19:45:00,2022-01-17 11:45:00,-999.0000,41.08,563.90,5.4000,5.1000,-999.0000,3.0,2.2,-999.0,98.3,,102,1.57,2.46,-999,-999.0000,0.397,13.5378,-999.0000,12.4,12.7,-999.0000
2022-01-17 20:00:00,2022-01-17 12:00:00,-999.0000,41.08,563.90,5.1000,4.3000,-999.0000,3.2,2.3,-999.0,95.0,,106,1.57,3.13,-999,-999.0000,0.397,13.5436,-999.0000,12.1,12.2,-999.0000
2022-01-17 20:15:00,2022-01-17 12:15:00,-999.0000,41.08,564.00,4.8000,4.2000,-999.0000,3.7,2.3,-999.0,95.5,,100,1.79,3.80,-999,-999.0000,0.398,13.5407,-999.0000,12.4,13.0,-999.0000
2022-01-17 20:30:00,2022-01-17 12:30:00,0.6159,41.08,-999.00,5.5000,4.5000,1.9880,4.0,-999,-999.0,93.5,,95,1.57,4.25,-999,7.9030,0.389,13.5335,13.8000,12.6,13.1,-999.0000
2022-01-17 20:45:00,2022-01-17 12:45:00,0.6113,41.08,564.20,4.7000,4.1000,1.9960,4.0,-999,-999.0,95.7,,100,1.57,3.80,-999,7.9140,0.397,13.5335,13.7980,12.1,12.2,-999.0000
2022-01-17 21:00:00,2022-01-17 13:00:00,0.6134,41.08,564.70,4.6000,4.5000,2.0060,4.2,2.3,-999.0,99.4,,103,1.79,3.36,-999,7.9190,0.395,13.5306,13.7960,12.2,12.5,-999.0000
2022-01-17 21:15:00,2022-01-17 13:15:00,0.6134,41.08,563.20,5.7000,4.9000,2.0140,4.0,2.3,-999.0,94.5,,109,1.34,3.80,-999,7.9160,0.392,13.5306,13.7960,12.1,12.2,-999.0000
2022-01-17 21:30:00,2022-01-17 13:30:00,0.6152,41.08,562.90,6.5000,4.2000,2.0220,4.0,2.3,-999.0,85.1,,140,2.01,8.72,-999,7.9270,0.383,13.5248,13.7910,12.1,12.2,-999.0000
2022-01-17 21:45:00,2022-01-17 13:45:00,-999.0000,41.08,561.20,5.9000,4.5000,-999.0000,4.2,2.4,-999.0,91.1,,109,1.57,5.37,-999,-999.0000,0.389,13.5262,-999.0000,12.2,12.3,-999.0000
2022-01-17 22:00:00,2022-01-17 14:00:00,-999.0000,41.08,563.60,5.7000,4.8000,-999.0000,4.5,2.4,-999.0,93.6,,83,1.12,2.24,-999,-999.0000,0.396,13.5248,-999.0000,12.1,12.2,-999.0000
2022-01-17 22:15:00,2022-01-17 14:15:00,0.6129,41.08,563.60,5.0000,4.2000,2.0450,4.7,2.4,-999.0,94.7,,58,1.57,2.68,-999,7.9280,0.398,13.5248,13.7900,12.1,12.1,-999.0000
2022-01-17 22:30:00,2022-01-17 14:30:00,0.6152,41.08,563.70,4.5000,4.3000,2.0530,4.9,2.4,-999.0,98.9,,80,1.57,3.36,-999,7.9220,0.396,13.5248,13.7910,12.0,12.0,-999.0000
2022-01-17 22:45:00,2022-01-17 14:45:00,0.6175,41.08,563.10,3.9000,3.7000,2.0600,4.5,2.4,-999.0,98.8,,57,1.79,4.25,-999,7.9340,0.400,13.5248,13.7920,12.0,12.0,-999.0000
2022-01-17 23:00:00,2022-01-17 15:00:00,0.6152,41.08,563.30,3.5000,3.3000,2.0660,4.0,2.4,-999.0,98.7,,55,2.01,4.25,-999,7.9350,0.400,13.5248,13.7910,12.0,12.0,-999.0000
2022-01-17 23:15:00,2022-01-17 15:15:00,0.6165,41.08,563.50,3.4000,3.3000,2.0700,3.8,2.3,-999.0,99.2,,56,1.79,3.36,-999,7.9330,0.398,13.5262,13.7930,12.0,12.0,-999.0000
2022-01-17 23:30:00,2022-01-17 15:30:00,0.6173,41.08,563.60,3.2000,3.1000,2.0730,3.7,2.3,-999.0,99.3,,57,2.24,4.25,-999,7.9330,0.400,13.5219,13.7890,12.0,12.0,-999.0000
2022-01-17 23:45:00,2022-01-17 15:45:00,0.6152,41.08,563.50,3.2000,3.1000,2.0740,3.3,2.3,-999.0,99.3,,50,1.79,3.13,-999,7.9290,0.400,13.5248,13.7910,11.9,12.0,-999.0000
2022-01-18 00:00:00,2022-01-17 16:00:00,0.6173,41.08,563.40,2.8000,2.8000,2.0750,3.2,2.3,-999.0,100.0,,53,1.79,3.36,-999,7.9360,0.401,13.5219,13.7890,11.9,11.9,-999.0000
2022-01-18 00:15:00,2022-01-17 16:15:00,0.6162,41.08,563.70,2.4000,2.4000,2.0740,2.8,2.3,-999.0,100.0,,45,2.24,4.70,-999,7.9220,0.401,13.5233,13.7900,11.9,11.9,-999.0000
2022-01-18 00:30:00,2022-01-17 16:30:00,0.6186,41.08,563.60,2.2000,2.2000,2.0740,2.6,2.3,-999.0,100.0,,54,2.01,4.70,-999,7.9270,0.401,13.5233,13.7910,11.8,11.8,-999.0000
2022-01-18 00:45:00,2022-01-17 16:45:00,0.6152,41.08,563.60,1.9000,1.9000,2.0720,2.3,2.3,-999.0,100.0,,52,1.79,3.36,-999,7.9330,0.402,13.5248,13.7910,11.8,11.8,-999.0000
2022-01-18 01:00:00,2022-01-17 17:00:00,0.6165,41.08,563.40,1.6000,1.6000,2.0700,2.0,2.3,-999.0,100.0,,70,0.89,3.13,-999,7.9230,0.400,13.5262,13.7930,11.7,11.7,-999.0000
2022-01-18 01:15:00,2022-01-17 17:15:00,0.6157,41.08,563.10,1.5000,1.5000,2.0670,1.6,2.3,-999.0,100.0,,47,2.01,4.03,-999,7.9230,0.401,13.5306,13.7970,11.7,4.8,-999.0000
2022-01-18 01:30:00,2022-01-17 17:30:00,0.6157,41.08,563.30,1.2000,1.2000,2.0640,1.4,2.3,-999.0,100.0,,56,1.34,2.46,-999,7.9170,0.401,13.5306,13.7970,11.7,0.3,-999.0000
2022-01-18 01:45:00,2022-01-17 17:45:00,0.6136,41.08,563.20,1.1000,1.1000,2.0600,1.1,2.2,-999.0,100.0,,58,1.34,3.13,-999,7.9200,0.400,13.5335,13.7990,11.7,0.0,-999.0000
2022-01-18 02:00:00,2022-01-17 18:00:00,0.6123,41.08,563.30,1.0000,1.0000,2.0560,0.9,2.2,-999.0,100.0,,51,1.79,4.03,-999,7.9220,0.400,13.5320,13.7970,11.7,0.0,-999.0000
2022-01-18 02:15:00,2022-01-17 18:15:00,0.6169,41.08,562.30,0.8000,0.8000,2.0520,0.4,2.2,-999.0,100.0,,68,1.12,2.24,-999,7.9180,0.399,13.5320,13.7990,11.7,0.0,-999.0000
2022-01-18 02:30:00,2022-01-17 18:30:00,0.6136,41.08,562.30,0.7000,0.7000,2.0470,0.4,2.2,-999.0,100.0,,48,2.01,3.36,-999,7.9130,0.397,13.5335,13.7990,11.7,0.0,-999.0000
2022-01-18 02:45:00,2022-01-17 18:45:00,0.6169,41.08,562.50,0.5000,0.5000,2.0430,0.1,2.2,-999.0,100.0,,53,1.57,2.68,-999,7.9090,0.398,13.5320,13.7990,11.7,0.0,-999.0000
2022-01-18 03:00:00,2022-01-17 19:00:00,-999.0000,41.08,476.00,0.6000,0.6000,-999.0000,0.1,2.2,-999.0,100.0,,47,2.01,3.36,-999,-999.0000,0.399,13.5306,-999.0000,11.7,0.0,-999.0000
2022-01-18 03:15:00,2022-01-17 19:15:00,0.6157,41.08,562.90,0.5000,0.5000,2.0330,-0.1,2.2,-999.0,100.0,,70,1.12,2.24,-999,7.8960,0.398,13.5306,13.7970,11.7,0.0,-999.0000
2022-01-18 03:30:00,2022-01-17 19:30:00,0.6146,41.08,564.50,0.6000,0.6000,2.0280,0.1,2.2,-999.0,100.0,,59,1.34,2.91,-999,7.9140,0.399,13.5320,13.7980,11.7,0.0,-999.0000
2022-01-18 03:45:00,2022-01-17 19:45:00,0.6136,41.08,564.70,0.7000,0.7000,2.0230,0.1,2.2,-999.0,100.0,,47,1.57,2.46,-999,7.9000,0.398,13.5335,13.7990,11.7,0.0,-999.0000
2022-01-18 04:00:00,2022-01-17 20:00:00,0.6182,41.08,564.60,0.7000,0.7000,2.0200,-0.1,2.2,-999.0,100.0,,70,0.89,2.01,-999,7.8930,0.398,13.5335,13.8010,11.7,0.0,-999.0000
2022-01-18 04:15:00,2022-01-17 20:15:00,-999.0000,41.08,-999.00,0.7000,0.7000,-999.0000,-0.1,-999,-999.0,100.0,,46,1.57,2.46,-999,-999.0000,0.399,13.5320,-999.0000,11.7,0.1,-999.0000
2022-01-18 04:30:00,2022-01-17 20:30:00,0.6159,41.08,564.70,0.5000,0.5000,2.0130,0.1,2.2,-999.0,100.0,,72,1.12,1.79,-999,7.8930,0.397,13.5335,13.8000,11.7,0.1,-999.0000
2022-01-18 04:45:00,2022-01-17 20:45:00,0.6182,41.08,564.70,0.5000,0.5000,2.0110,-0.1,2.2,-999.0,100.0,,51,1.34,3.13,-999,7.9010,0.398,13.5335,13.8010,11.7,0.1,-999.0000
2022-01-18 05:00:00,2022-01-17 21:00:00,0.6149,41.08,563.50,0.4000,0.4000,2.0080,-0.1,2.2,-999.0,100.0,,67,0.00,1.79,-999,7.8970,0.396,13.5349,13.8010,11.7,0.1,-999.0000
2022-01-18 05:15:00,2022-01-17 21:15:00,0.6136,41.08,564.20,0.4000,0.4000,2.0040,-0.3,2.2,-999.0,100.0,,52,1.34,2.68,-999,7.8970,0.398,13.5335,13.7990,11.7,0.1,-999.0000
2022-01-18 05:30:00,2022-01-17 21:30:00,0.6115,41.08,564.40,0.4000,0.4000,2.0030,-0.3,2.2,-999.0,100.0,,53,1.57,2.68,-999,7.9000,0.398,13.5364,13.8010,11.7,0.1,-999.0000
2022-01-18 05:45:00,2022-01-17 21:45:00,0.6161,41.08,564.30,0.5000,0.5000,2.0000,-0.1,2.2,-999.0,100.0,,58,1.34,2.91,-999,7.8950,0.397,13.5364,13.8030,11.7,0.1,-999.0000
2022-01-18 06:00:00,2022-01-17 22:00:00,0.6161,41.08,564.00,0.6000,0.6000,1.9980,-0.1,2.2,-999.0,100.0,,64,1.57,3.36,-999,7.8910,0.398,13.5364,13.8030,11.7,0.1,-999.0000
2022-01-18 06:15:00,2022-01-17 22:15:00,0.6159,41.08,563.70,0.7000,0.7000,1.9950,-0.1,2.2,-999.0,100.0,,41,1.79,3.58,-999,7.8980,0.398,13.5335,13.8000,11.7,0.1,-999.0000
2022-01-18 06:30:00,2022-01-17 22:30:00,0.6159,41.08,563.70,0.7000,0.7000,1.9940,0.1,2.2,-999.0,100.0,,73,0.89,2.01,-999,7.8890,0.397,13.5335,13.8000,11.7,0.1,-999.0000
2022-01-18 06:45:00,2022-01-17 22:45:00,-999.0000,41.08,563.60,0.8000,0.8000,-999.0000,0.2,2.2,-999.0,100.0,,53,1.57,2.24,-999,-999.0000,0.396,13.5349,-999.0000,11.7,0.1,-999.0000
2022-01-18 07:00:00,2022-01-17 23:00:00,0.6149,41.08,563.90,0.9000,0.9000,1.9910,0.2,2.2,-999.0,100.0,,43,1.34,2.68,-999,7.8880,0.395,13.5349,13.8010,11.7,0.1,-999.0000
2022-01-18 07:15:00,2022-01-17 23:15:00,0.6136,41.08,563.50,0.8000,0.8000,1.9890,0.2,2.2,-999.0,100.0,,67,1.34,2.24,-999,7.8920,0.395,13.5335,13.7990,11.7,0.1,-999.0000
2022-01-18 07:30:00,2022-01-17 23:30:00,0.6149,41.08,563.20,0.9000,0.9000,1.9880,0.4,2.2,-999.0,100.0,,59,1.12,2.24,-999,7.9020,0.395,13.5349,13.8010,11.7,0.1,-999.0000
2022-01-18 07:45:00,2022-01-17 23:45:00,0.6115,41.08,563.00,1.0000,1.0000,1.9880,0.4,2.2,-999.0,100.0,,54,0.67,2.24,-999,7.9010,0.397,13.5364,13.8010,11.7,0.1,-999.0000
2022-01-18 08:00:00,2022-01-18 00:00:00,0.6195,41.08,562.90,0.9000,0.9000,1.9870,0.6,2.2,-999.0,100.0,,0,0.00,1.79,-999,7.8990,0.395,13.5349,13.8030,11.7,0.1,-999.0000
2022-01-18 08:15:00,2022-01-18 00:15:00,0.6140,41.08,562.60,1.0000,1.0000,1.9870,0.7,2.2,-999.0,100.0,,44,1.12,2.46,-999,7.9070,0.396,13.5393,13.8050,11.7,0.1,-999.0000
2022-01-18 08:30:00,2022-01-18 00:30:00,-999.0000,41.08,562.90,1.0000,1.0000,-999.0000,0.7,2.2,-999.0,100.0,,66,0.89,1.34,-999,-999.0000,0.397,13.5407,-999.0000,11.7,0.1,-999.0000
2022-01-18 08:45:00,2022-01-18 00:45:00,0.6140,41.08,562.50,1.1000,1.1000,1.9870,0.9,2.2,-999.0,100.0,,43,1.79,2.46,-999,7.9040,0.396,13.5393,13.8050,11.7,0.0,-999.0000
2022-01-18 09:00:00,2022-01-18 01:00:00,-999.0000,41.08,-999.00,1.0000,1.0000,-999.0000,0.7,-999,-999.0,100.0,,52,1.34,3.13,-999,-999.0000,0.396,13.5378,-999.0000,11.7,0.0,-999.0000
2022-01-18 09:15:00,2022-01-18 01:15:00,0.6130,41.08,549.10,1.1000,1.1000,1.9870,0.7,2.5,-999.0,100.0,,55,0.89,2.46,-999,7.9100,0.393,13.5407,13.8060,11.7,0.0,-999.0000
2022-01-18 09:30:00,2022-01-18 01:30:00,0.6130,41.09,555.60,1.2000,1.2000,1.9900,0.9,-999,-999.0,100.0,,52,1.34,2.46,-999,7.9030,0.394,13.5407,13.8060,11.7,0.0,-999.0000
2022-01-18 09:45:00,2022-01-18 01:45:00,0.6187,41.09,554.50,1.1000,1.1000,1.9950,0.9,-999,-999.0,100.0,,69,0.89,1.79,-999,7.9070,0.393,13.5393,13.8070,11.6,0.0,-999.0000
2022-01-18 10:00:00,2022-01-18 02:00:00,0.6143,41.09,554.90,1.1000,1.1000,1.9970,0.9,2.2,-999.0,100.0,,49,1.34,2.91,-999,7.9120,0.393,13.5422,13.8080,11.6,0.1,-999.0000
2022-01-18 10:15:00,2022-01-18 02:15:00,0.6179,41.09,554.90,1.2000,1.2000,1.9970,1.1,2.2,-999.0,100.0,,49,1.34,2.46,-999,7.9140,0.394,13.5436,13.8110,11.7,0.1,-999.0000
2022-01-18 10:30:00,2022-01-18 02:30:00,-999.0000,41.09,-999.00,1.3000,1.3000,-999.0000,1.1,-999,-999.0,100.0,,38,1.12,2.46,-999,-999.0000,0.393,13.5407,-999.0000,11.6,0.0,-999.0000
2022-01-18 10:45:00,2022-01-18 02:45:00,0.6143,41.10,-999.00,1.1000,1.1000,1.9960,1.1,-999,-999.0,100.0,,50,1.34,3.13,-999,7.9050,0.392,13.5422,13.8080,11.7,0.0,-999.0000
2022-01-18 11:00:00,2022-01-18 03:00:00,0.6155,41.13,-999.00,1.2000,1.2000,1.9950,1.1,-999,-999.0,100.0,,50,1.12,3.13,-999,7.9120,0.393,13.5436,13.8100,11.6,0.0,-999.0000
2022-01-18 11:15:00,2022-01-18 03:15:00,0.6124,41.13,554.60,1.2000,1.2000,1.9950,0.9,2.2,-999.0,100.0,,52,0.89,2.24,-999,7.9130,0.393,13.5480,13.8130,11.6,0.0,-999.0000
2022-01-18 11:30:00,2022-01-18 03:30:00,-999.0000,41.14,553.30,1.1000,1.1000,-999.0000,1.1,-999,-999.0,100.0,,72,0.89,1.57,-999,-999.0000,0.393,13.5436,-999.0000,11.6,0.0,-999.0000
2022-01-18 11:45:00,2022-01-18 03:45:00,-999.0000,41.15,-999.00,1.3000,1.3000,-999.0000,1.1,-999,-999.0,100.0,,51,0.89,2.01,-999,-999.0000,0.393,13.5422,-999.0000,11.7,0.0,-999.0000
2022-01-18 12:00:00,2022-01-18 04:00:00,0.6197,41.16,-999.00,1.2000,1.2000,1.9930,1.1,-999,-999.0,100.0,,55,1.12,3.36,-999,7.9120,0.393,13.5378,13.8060,11.7,0.1,-999.0000
2022-01-18 12:15:00,2022-01-18 04:15:00,0.6132,41.16,-999.00,1.2000,1.2000,1.9920,1.1,-999,-999.0,100.0,,0,0.00,1.34,-999,7.9120,0.395,13.5436,13.8090,11.6,0.1,-999.0000
2022-01-18 12:30:00,2022-01-18 04:30:00,0.6132,41.17,-999.00,1.3000,1.3000,1.9920,1.1,-999,-999.0,100.0,,54,1.34,2.68,-999,7.9070,0.396,13.5436,13.8090,11.6,0.1,-999.0000
2022-01-18 12:45:00,2022-01-18 04:45:00,0.6158,41.17,-999.00,1.3000,1.3000,1.9910,1.1,-999,-999.0,100.0,,77,0.00,2.01,-999,7.9160,0.393,13.5465,13.8130,11.6,0.0,-999.0000
2022-01-18 13:00:00,2022-01-18 05:00:00,-999.0000,41.18,542.10,1.2000,1.2000,-999.0000,1.1,-999,-999.0,100.0,,52,1.34,2.46,-999,-999.0000,0.392,13.5494,-999.0000,11.6,0.0,-999.0000
2022-01-18 13:15:00,2022-01-18 05:15:00,-999.0000,41.18,-999.00,1.3000,1.3000,-999.0000,1.1,-999,-999.0,100.0,,68,1.34,3.80,-999,-999.0000,0.392,13.5523,-999.0000,11.6,0.0,-999.0000
2022-01-18 13:30:00,2022-01-18 05:30:00,-999.0000,41.19,-999.00,1.3000,1.3000,-999.0000,1.1,-999,-999.0,100.0,,50,1.12,3.13,-999,-999.0000,0.393,13.5552,-999.0000,11.6,0.0,-999.0000
2022-01-18 13:45:00,2022-01-18 05:45:00,-999.0000,41.20,543.20,1.3000,1.3000,-999.0000,1.1,2.2,-999.0,100.0,,52,0.89,2.68,-999,-999.0000,0.392,13.5552,-999.0000,11.6,0.0,-999.0000
2022-01-18 14:00:00,2022-01-18 06:00:00,-999.0000,41.20,543.80,1.2000,1.2000,-999.0000,1.1,-999,-999.0,100.0,,54,0.67,1.79,-999,-999.0000,0.391,13.5552,-999.0000,11.6,0.0,-999.0000
2022-01-18 14:15:00,2022-01-18 06:15:00,0.6165,41.20,544.00,1.1000,1.1000,1.9950,0.9,-999,-999.0,100.0,,59,1.34,2.91,-999,7.9090,0.392,13.5552,13.8220,11.6,0.0,-999.0000
2022-01-18 14:30:00,2022-01-18 06:30:00,0.6131,41.20,-999.00,1.2000,1.2000,1.9930,1.1,-999,-999.0,100.0,,59,1.34,3.13,-999,7.9050,0.392,13.5567,13.8220,11.6,0.0,-999.0000
2022-01-18 14:45:00,2022-01-18 06:45:00,0.6141,41.20,535.90,1.2000,1.2000,1.9910,1.1,2.5,-999.0,100.0,,55,1.34,2.46,-999,7.9000,0.392,13.5552,13.8210,11.6,0.0,-999.0000
2022-01-18 15:00:00,2022-01-18 07:00:00,-999.0000,41.20,543.50,1.1000,1.1000,-999.0000,0.9,2.4,-999.0,100.0,,84,0.89,1.57,-999,-999.0000,0.392,13.5581,-999.0000,11.6,0.0,-999.0000
2022-01-18 15:15:00,2022-01-18 07:15:00,-999.0000,41.21,-999.00,1.2000,1.2000,-999.0000,0.9,-999,-999.0,100.0,,42,1.79,3.58,-999,-999.0000,0.392,13.5596,-999.0000,11.6,0.8,-999.0000
2022-01-18 15:30:00,2022-01-18 07:30:00,-999.0000,41.22,-999.00,1.2000,1.2000,-999.0000,1.1,-999,-999.0,100.0,,37,1.57,2.91,-999,-999.0000,0.394,13.5596,-999.0000,11.6,7.0,-999.0000
2022-01-18 15:45:00,2022-01-18 07:45:00,-999.0000,41.22,-999.00,1.2000,1.2000,-999.0000,0.9,-999,-999.0,100.0,,48,1.34,2.68,-999,-999.0000,0.393,13.5610,-999.0000,11.6,11.6,-999.0000
2022-01-18 16:00:00,2022-01-18 08:00:00,0.6146,41.22,-999.00,1.2000,1.2000,1.9900,0.7,-999,-999.0,100.0,,48,1.34,2.46,-999,7.9010,0.391,13.5610,13.8270,11.6,11.6,-999.0000
2022-01-18 16:15:00,2022-01-18 08:15:00,0.6125,41.22,-999.00,1.2000,1.2000,1.9880,0.9,-999,-999.0,100.0,,55,1.12,3.13,-999,7.9140,0.393,13.5639,13.8290,11.7,11.6,-999.0000
2022-01-18 16:30:00,2022-01-18 08:30:00,-999.0000,41.22,-999.00,1.4000,1.4000,-999.0000,1.1,-999,-999.0,100.0,,46,0.89,2.24,-999,-999.0000,0.391,13.5654,-999.0000,11.6,11.6,-999.0000
2022-01-18 16:45:00,2022-01-18 08:45:00,-999.0000,41.22,-999.00,1.4000,1.4000,-999.0000,1.1,-999,-999.0,100.0,,50,0.89,2.01,-999,-999.0000,0.393,13.5654,-999.0000,11.6,11.6,-999.0000
2022-01-18 17:00:00,2022-01-18 09:00:00,0.6140,41.22,-999.00,1.4000,1.4000,1.9920,1.1,-999,-999.0,100.0,,0,0.89,3.13,-999,7.9230,0.392,13.5683,13.8340,11.6,11.7,-999.0000
2022-01-18 17:15:00,2022-01-18 09:15:00,-999.0000,41.22,-999.00,1.8000,1.8000,-999.0000,1.3,-999,-999.0,100.0,,0,0.00,1.79,-999,-999.0000,0.391,13.5697,-999.0000,11.7,11.7,-999.0000
2022-01-18 17:30:00,2022-01-18 09:30:00,-999.0000,41.22,547.20,1.9000,1.9000,-999.0000,1.3,-999,-999.0,100.0,,0,0.00,1.57,-999,-999.0000,0.391,13.5697,-999.0000,11.7,11.8,-999.0000
2022-01-18 17:45:00,2022-01-18 09:45:00,-999.0000,41.22,-999.00,2.1000,2.1000,-999.0000,1.4,-999,-999.0,100.0,,0,0.00,2.46,-999,-999.0000,0.401,13.5741,-999.0000,11.8,11.8,-999.0000
2022-01-18 18:00:00,2022-01-18 10:00:00,-999.0000,41.22,-999.00,2.1000,2.1000,-999.0000,1.6,-999,-999.0,100.0,,65,0.67,2.46,-999,-999.0000,0.400,13.5726,-999.0000,11.9,12.0,-999.0000
2022-01-18 18:15:00,2022-01-18 10:15:00,-999.0000,41.22,-999.00,2.6000,2.6000,-999.0000,1.6,-999,-999.0,100.0,,60,0.00,1.34,-999,-999.0000,0.397,13.5755,-999.0000,12.0,12.1,-999.0000
2022-01-18 18:30:00,2022-01-18 10:30:00,-999.0000,41.22,-999.00,2.7000,2.7000,-999.0000,1.8,-999,-999.0,100.0,,84,0.00,1.57,-999,-999.0000,0.394,13.5755,-999.0000,12.0,12.0,-999.0000
2022-01-18 18:45:00,2022-01-18 10:45:00,0.6091,41.22,-999.00,2.8000,2.8000,1.9930,2.3,-999,-999.0,100.0,,51,1.12,2.91,-999,7.9130,0.398,13.5784,13.8420,12.0,12.1,-999.0000
2022-01-18 19:00:00,2022-01-18 11:00:00,0.6137,41.22,-999.00,3.0000,3.0000,1.9970,2.5,-999,-999.0,100.0,,62,0.89,2.01,-999,7.9260,0.394,13.5784,13.8440,12.1,12.2,-999.0000
2022-01-18 19:15:00,2022-01-18 11:15:00,0.6103,41.22,-999.00,3.4000,3.4000,2.0000,2.5,-999,-999.0,100.0,,60,0.67,1.57,-999,7.9140,0.391,13.5799,13.8440,12.0,12.1,-999.0000
2022-01-18 19:30:00,2022-01-18 11:30:00,-999.0000,41.22,546.90,3.4000,3.4000,-999.0000,3.0,-999,-999.0,100.0,,64,0.67,1.57,-999,-999.0000,0.392,13.5784,-999.0000,12.1,12.1,-999.0000
2022-01-18 19:45:00,2022-01-18 11:45:00,0.6080,41.22,-999.00,3.7000,3.7000,2.0100,3.2,-999,-999.0,100.0,,0,0.00,1.12,-999,7.9230,0.392,13.5799,13.8430,12.1,12.1,-999.0000
2022-01-18 20:00:00,2022-01-18 12:00:00,-999.0000,41.22,-999.00,3.9000,3.9000,-999.0000,3.3,-999,-999.0,100.0,,0,0.00,1.57,-999,-999.0000,0.393,13.5799,-999.0000,12.1,12.1,-999.0000
2022-01-18 20:15:00,2022-01-18 12:15:00,-999.0000,41.22,546.90,3.8000,3.8000,-999.0000,3.5,2.3,-999.0,100.0,,82,0.67,1.79,-999,-999.0000,0.391,13.5770,-999.0000,12.1,12.2,-999.0000
2022-01-18 20:30:00,2022-01-18 12:30:00,-999.0000,41.22,-999.00,3.8000,3.8000,-999.0000,3.7,-999,-999.0,100.0,,54,0.89,2.24,-999,-999.0000,0.395,13.5770,-999.0000,12.1,12.2,-999.0000
2022-01-18 20:45:00,2022-01-18 12:45:00,-999.0000,41.22,-999.00,3.7000,3.7000,-999.0000,3.8,-999,-999.0,100.0,,71,1.34,2.24,-999,-999.0000,0.397,13.5770,-999.0000,12.2,12.3,-999.0000
2022-01-18 21:00:00,2022-01-18 13:00:00,-999.0000,41.22,544.80,4.0000,4.0000,-999.0000,3.7,-999,-999.0,100.0,,103,0.89,1.57,-999,-999.0000,0.389,13.5755,-999.0000,12.2,12.3,-999.0000
2022-01-18 21:15:00,2022-01-18 13:15:00,-999.0000,41.22,544.70,4.4000,4.4000,-999.0000,3.7,2.3,-999.0,100.0,,0,0.00,1.12,-999,-999.0000,0.389,13.5755,-999.0000,12.2,12.3,-999.0000
2022-01-18 21:30:00,2022-01-18 13:30:00,-999.0000,41.22,543.30,4.4000,4.4000,-999.0000,3.7,2.3,-999.0,100.0,,0,0.67,2.46,-999,-999.0000,0.390,13.5770,-999.0000,12.2,12.2,-999.0000
2022-01-18 21:45:00,2022-01-18 13:45:00,-999.0000,41.22,-999.00,4.3000,4.3000,-999.0000,3.8,-999,-999.0,100.0,,229,1.57,5.59,-999,-999.0000,0.395,13.5784,-999.0000,12.2,12.3,-999.0000
2022-01-18 22:00:00,2022-01-18 14:00:00,-999.0000,41.22,543.80,4.2000,4.2000,-999.0000,4.0,2.3,-999.0,100.0,,231,1.34,4.25,-999,-999.0000,0.391,13.5784,-999.0000,12.0,12.1,-999.0000
2022-01-18 22:15:00,2022-01-18 14:15:00,-999.0000,41.22,-999.00,4.2000,4.2000,-999.0000,4.2,-999,-999.0,100.0,,0,0.00,1.57,-999,-999.0000,0.392,13.5813,-999.0000,12.2,12.3,-999.0000
2022-01-18 22:30:00,2022-01-18 14:30:00,-999.0000,41.22,-999.00,4.5000,4.3000,-999.0000,4.4,-999,-999.0,98.8,,243,1.79,5.37,-999,-999.0000,0.393,13.5828,-999.0000,12.2,12.2,-999.0000
2022-01-18 22:45:00,2022-01-18 14:45:00,-999.0000,41.22,-999.00,4.2000,4.2000,-999.0000,4.4,-999,-999.0,100.0,,0,0.00,1.79,-999,-999.0000,0.394,13.5842,-999.0000,12.0,12.1,-999.0000
2022-01-18 23:00:00,2022-01-18 15:00:00,0.6064,41.22,553.10,3.9000,3.9000,2.0720,4.2,-999,-999.0,100.0,,0,0.00,1.34,-999,7.9600,0.393,13.5886,13.8510,12.0,12.1,-999.0000
2022-01-18 23:15:00,2022-01-18 15:15:00,-999.0000,41.23,552.40,3.7000,3.7000,-999.0000,4.2,-999,-999.0,100.0,,0,0.00,1.57,-999,-999.0000,0.390,13.5915,-999.0000,12.0,12.0,-999.0000
2022-01-18 23:30:00,2022-01-18 15:30:00,-999.0000,41.23,-999.00,3.8000,3.8000,-999.0000,4.2,-999,-999.0,100.0,,0,0.00,2.24,-999,-999.0000,0.380,13.5944,-999.0000,12.0,12.0,-999.0000
2022-01-18 23:45:00,2022-01-18 15:45:00,-999.0000,41.23,-999.00,3.7000,3.7000,-999.0000,4.0,-999,-999.0,100.0,,0,0.00,1.34,-999,-999.0000,0.383,13.5944,-999.0000,12.0,12.0,-999.0000
2022-01-19 00:00:00,2022-01-18 16:00:00,-999.0000,41.23,553.50,3.3000,3.3000,-999.0000,3.7,-999,-999.0,100.0,,0,0.00,0.89,-999,-999.0000,0.383,13.5958,-999.0000,11.9,11.9,-999.0000
2022-01-19 00:15:00,2022-01-18 16:15:00,-999.0000,41.24,553.20,3.0000,3.0000,-999.0000,3.5,-999,-999.0,100.0,,66,0.00,1.34,-999,-999.0000,0.384,13.5973,-999.0000,11.9,11.8,-999.0000
2022-01-19 00:30:00,2022-01-18 16:30:00,-999.0000,41.24,-999.00,2.5000,2.5000,-999.0000,3.3,-999,-999.0,100.0,,49,0.89,2.46,-999,-999.0000,0.384,13.5987,-999.0000,11.8,11.8,-999.0000
2022-01-19 00:45:00,2022-01-18 16:45:00,-999.0000,41.24,-999.00,2.1000,2.1000,-999.0000,3.2,-999,-999.0,100.0,,52,1.34,2.24,-999,-999.0000,0.386,13.6002,-999.0000,11.8,11.8,-999.0000
2022-01-19 01:00:00,2022-01-18 17:00:00,0.6107,41.24,553.50,2.0000,2.0000,2.0780,2.8,2.3,-999.0,100.0,,53,0.89,2.24,-999,7.9740,0.383,13.5987,13.8630,11.8,9.6,-999.0000
2022-01-19 01:15:00,2022-01-18 17:15:00,0.6083,41.24,-999.00,1.7000,1.7000,2.0760,2.5,-999,-999.0,100.0,,48,1.12,1.79,-999,7.9770,0.386,13.5987,13.8620,11.8,2.6,-999.0000
2022-01-19 01:30:00,2022-01-18 17:30:00,-999.0000,41.24,-999.00,1.5000,1.5000,-999.0000,2.1,-999,-999.0,100.0,,56,0.89,1.79,-999,-999.0000,0.384,13.6016,-999.0000,11.7,0.1,-999.0000
2022-01-19 01:45:00,2022-01-18 17:45:00,0.6088,41.24,-999.00,1.4000,1.4000,2.0690,2.0,-999,-999.0,100.0,,73,0.67,2.24,-999,7.9770,0.383,13.6045,13.8680,11.8,0.0,-999.0000
2022-01-19 02:00:00,2022-01-18 18:00:00,-999.0000,41.24,-999.00,1.4000,1.4000,-999.0000,1.6,-999,-999.0,100.0,,45,1.12,2.24,-999,-999.0000,0.384,13.6060,-999.0000,11.7,0.0,-999.0000
2022-01-19 02:15:00,2022-01-18 18:15:00,-999.0000,41.24,-999.00,1.5000,1.5000,-999.0000,1.4,-999,-999.0,100.0,,50,1.34,2.46,-999,-999.0000,0.380,13.6060,-999.0000,11.8,0.0,-999.0000
2022-01-19 02:30:00,2022-01-18 18:30:00,-999.0000,41.24,-999.00,1.3000,1.3000,-999.0000,1.4,-999,-999.0,100.0,,59,1.34,2.46,-999,-999.0000,0.383,13.6031,-999.0000,11.7,0.0,-999.0000
2022-01-19 02:45:00,2022-01-18 18:45:00,0.6075,41.24,-999.00,1.2000,1.2000,2.0610,1.3,-999,-999.0,100.0,,62,1.12,1.79,-999,7.9830,0.382,13.6031,13.8660,11.7,0.0,-999.0000
2022-01-19 03:00:00,2022-01-18 19:00:00,-999.0000,41.24,-999.00,1.2000,1.2000,-999.0000,1.1,-999,-999.0,100.0,,46,1.57,2.68,-999,-999.0000,0.383,13.6045,-999.0000,11.7,0.0,-999.0000
2022-01-19 03:15:00,2022-01-18 19:15:00,-999.0000,41.24,-999.00,1.1000,1.1000,-999.0000,0.9,-999,-999.0,100.0,,45,1.12,2.46,-999,-999.0000,0.382,13.6103,-999.0000,11.7,0.0,-999.0000
2022-01-19 03:30:00,2022-01-18 19:30:00,-999.0000,41.24,-999.00,1.1000,1.1000,-999.0000,1.1,-999,-999.0,100.0,,56,0.00,1.57,-999,-999.0000,0.381,13.6118,-999.0000,11.7,0.0,-999.0000
2022-01-19 03:45:00,2022-01-18 19:45:00,-999.0000,41.24,-999.00,1.0000,1.0000,-999.0000,0.9,-999,-999.0,100.0,,53,0.89,1.57,-999,-999.0000,0.381,13.6147,-999.0000,11.7,0.0,-999.0000
2022-01-19 04:00:00,2022-01-18 20:00:00,-999.0000,41.24,543.30,0.9000,0.9000,-999.0000,0.7,-999,-999.0,100.0,,65,0.67,1.57,-999,-999.0000,0.382,13.6132,-999.0000,11.7,0.0,-999.0000
2022-01-19 04:15:00,2022-01-18 20:15:00,-999.0000,41.24,-999.00,0.8000,0.8000,-999.0000,0.6,-999,-999.0,100.0,,39,1.57,2.91,-999,-999.0000,0.381,13.6118,-999.0000,11.7,0.0,-999.0000
2022-01-19 04:30:00,2022-01-18 20:30:00,-999.0000,41.24,-999.00,0.8000,0.8000,-999.0000,0.4,-999,-999.0,100.0,,49,0.67,2.46,-999,-999.0000,0.382,13.6161,-999.0000,11.7,0.0,-999.0000
2022-01-19 04:45:00,2022-01-18 20:45:00,-999.0000,41.24,541.90,0.7000,0.7000,-999.0000,0.4,2.2,-999.0,100.0,,67,1.12,1.57,-999,-999.0000,0.382,13.6205,-999.0000,11.7,0.0,-999.0000
2022-01-19 05:00:00,2022-01-18 21:00:00,-999.0000,41.24,-999.00,0.7000,0.7000,-999.0000,0.4,-999,-999.0,100.0,,49,1.12,2.46,-999,-999.0000,0.381,13.6190,-999.0000,11.7,0.0,-999.0000
2022-01-19 05:15:00,2022-01-18 21:15:00,-999.0000,41.24,539.10,0.7000,0.7000,-999.0000,0.2,2.2,-999.0,100.0,,70,0.67,1.57,-999,-999.0000,0.382,13.6219,-999.0000,11.7,0.0,-999.0000
2022-01-19 05:30:00,2022-01-18 21:30:00,-999.0000,41.24,-999.00,0.6000,0.6000,-999.0000,0.2,-999,-999.0,100.0,,61,1.12,2.91,-999,-999.0000,0.380,13.6205,-999.0000,11.7,0.0,-999.0000
2022-01-19 05:45:00,2022-01-18 21:45:00,-999.0000,41.24,-999.00,0.5000,0.5000,-999.0000,0.1,-999,-999.0,100.0,,64,1.12,2.01,-999,-999.0000,0.379,13.6205,-999.0000,11.7,0.1,-999.0000
2022-01-19 06:00:00,2022-01-18 22:00:00,0.6066,41.24,-999.00,0.4000,0.4000,2.0050,0.1,-999,-999.0,100.0,,58,1.34,3.13,-999,7.9670,0.380,13.6205,13.8830,11.7,0.1,-999.0000
2022-01-19 06:15:00,2022-01-18 22:15:00,0.6087,41.24,-999.00,0.3000,0.3000,2.0020,-0.1,-999,-999.0,100.0,,52,1.57,2.68,-999,7.9600,0.379,13.6176,13.8810,11.7,0.1,-999.0000
2022-01-19 06:30:00,2022-01-18 22:30:00,-999.0000,41.24,-999.00,0.1000,0.1000,-999.0000,-0.1,-999,-999.0,100.0,,0,0.00,1.34,-999,-999.0000,0.381,13.6234,-999.0000,11.7,0.1,-999.0000
2022-01-19 06:45:00,2022-01-18 22:45:00,-999.0000,41.24,-999.00,0.0000,0.0000,-999.0000,-0.5,-999,-999.0,100.0,,45,1.12,2.24,-999,-999.0000,0.377,13.6263,-999.0000,11.7,0.1,-999.0000
2022-01-19 07:00:00,2022-01-18 23:00:00,0.6129,41.24,540.20,-0.1000,-0.1000,1.9890,-0.5,2.1,-999.0,100.0,,68,0.89,1.79,-999,7.9710,0.378,13.6277,13.8930,11.7,0.1,-999.0000
2022-01-19 07:15:00,2022-01-18 23:15:00,0.6109,41.24,-999.00,-0.2000,-0.2000,1.9850,-0.6,-999,-999.0,100.0,,60,1.12,2.46,-999,7.9730,0.379,13.6306,13.8950,11.7,0.1,-999.0000
2022-01-19 07:30:00,2022-01-18 23:30:00,0.6086,41.24,540.30,-0.2000,-0.2000,1.9810,-0.6,-999,-999.0,100.0,,48,1.57,2.46,-999,7.9580,0.379,13.6306,13.8940,11.7,0.1,-999.0000
2022-01-19 07:45:00,2022-01-18 23:45:00,0.6050,41.24,540.30,-0.1000,-0.1000,1.9780,-0.6,2.1,-999.0,100.0,,47,1.57,2.68,-999,7.9560,0.376,13.6292,13.8910,11.7,0.1,-999.0000
2022-01-19 08:00:00,2022-01-19 00:00:00,0.6081,41.24,539.30,-0.1000,-0.1000,1.9740,-0.8,2.1,-999.0,100.0,,48,1.57,2.68,-999,7.9590,0.377,13.6248,13.8880,11.7,0.1,-999.0000
2022-01-19 08:15:00,2022-01-19 00:15:00,0.6083,41.24,539.30,-0.3000,-0.3000,1.9700,-1.1,2.1,-999.0,100.0,,84,1.12,1.79,-999,7.9700,0.375,13.6277,13.8910,11.7,0.1,-999.0000
2022-01-19 08:30:00,2022-01-19 00:30:00,0.6065,41.24,539.50,-0.4000,-0.4000,1.9660,-1.3,2.1,-999.0,100.0,,56,1.12,2.24,-999,7.9660,0.376,13.6335,13.8960,11.7,0.1,-999.0000
2022-01-19 08:45:00,2022-01-19 00:45:00,0.6077,41.24,539.40,-0.5000,-0.5000,1.9630,-1.5,2.1,-999.0,100.0,,90,1.12,1.79,-999,7.9710,0.374,13.6350,13.8980,11.7,0.1,-999.0000
2022-01-19 09:00:00,2022-01-19 01:00:00,0.6065,41.24,540.50,-0.3000,-0.3000,1.9580,-1.7,2.1,-999.0,100.0,,46,1.57,2.68,-999,7.9640,0.374,13.6335,13.8960,11.7,0.1,-999.0000
2022-01-19 09:15:00,2022-01-19 01:15:00,0.6044,41.24,539.50,-0.3000,-0.3000,1.9540,-1.7,2.1,-999.0,100.0,,50,1.57,2.46,-999,7.9610,0.372,13.6364,13.8980,11.7,0.1,-999.0000
2022-01-19 09:30:00,2022-01-19 01:30:00,0.6157,41.24,541.20,-0.3000,-0.3000,1.9500,-1.7,2.1,-999.0,100.0,,50,1.12,1.79,-999,7.9510,0.366,13.6335,13.9000,11.7,0.1,-999.0000
2022-01-19 09:45:00,2022-01-19 01:45:00,0.6031,41.24,540.90,-0.4000,-0.4000,1.9470,-1.7,2.1,-999.0,100.0,,46,1.34,3.13,-999,7.9620,0.366,13.6350,13.8960,11.7,0.1,-999.0000
2022-01-19 10:00:00,2022-01-19 02:00:00,0.6077,41.24,540.50,-0.3000,-0.3000,1.9430,-1.8,2.1,-999.0,100.0,,48,1.57,2.68,-999,7.9450,0.365,13.6350,13.8980,11.7,0.1,-999.0000
2022-01-19 10:15:00,2022-01-19 02:15:00,0.6044,41.24,540.80,-0.2000,-0.2000,1.9390,-1.7,2.1,-999.0,100.0,,34,2.01,3.13,-999,7.9640,0.368,13.6364,13.8980,11.7,0.1,-999.0000
2022-01-19 10:30:00,2022-01-19 02:30:00,0.6036,41.24,540.90,-0.3000,-0.3000,1.9350,-1.5,2.1,-999.0,100.0,,49,1.12,2.24,-999,7.9600,0.366,13.6408,13.9020,11.7,0.1,-999.0000
2022-01-19 10:45:00,2022-01-19 02:45:00,0.6105,41.24,541.00,-0.3000,-0.3000,1.9320,-1.5,2.1,-999.0,100.0,,0,0.67,1.79,-999,7.9620,0.365,13.6408,13.9050,11.7,0.1,-999.0000
2022-01-19 11:00:00,2022-01-19 03:00:00,0.6107,41.24,540.80,-0.2000,-0.2000,1.9290,-1.7,2.1,-999.0,100.0,,38,0.67,1.34,-999,7.9620,0.368,13.6437,13.9080,11.7,0.1,-999.0000
2022-01-19 11:15:00,2022-01-19 03:15:00,0.6007,41.24,540.50,-0.1000,-0.1000,1.9280,-1.7,-999,-999.0,100.0,,48,1.12,2.01,-999,7.9610,0.365,13.6481,13.9080,11.7,0.1,-999.0000
2022-01-19 11:30:00,2022-01-19 03:30:00,0.6020,41.24,541.20,0.0000,0.0000,1.9250,-1.5,2.1,-999.0,100.0,,47,1.12,2.24,-999,7.9630,0.366,13.6495,13.9100,11.7,0.1,-999.0000
2022-01-19 11:45:00,2022-01-19 03:45:00,0.6040,41.24,540.00,-0.1000,-0.1000,1.9220,-1.5,2.1,-999.0,100.0,,56,0.89,1.57,-999,7.9680,0.364,13.6466,13.9080,11.7,0.1,-999.0000
2022-01-19 12:00:00,2022-01-19 04:00:00,0.6099,41.24,539.80,0.0000,0.0000,1.9210,-1.3,2.1,-999.0,100.0,,65,0.67,1.34,-999,7.9630,0.364,13.6481,13.9120,11.7,0.0,-999.0000
2022-01-19 12:15:00,2022-01-19 04:15:00,0.6017,41.24,539.20,0.0000,0.0000,1.9200,-1.1,2.1,-999.0,100.0,,53,0.89,2.68,-999,7.9630,0.364,13.6466,13.9070,11.7,0.1,-999.0000
2022-01-19 12:30:00,2022-01-19 04:30:00,0.6007,41.24,539.10,0.1000,0.1000,1.9190,-1.0,2.1,-999.0,100.0,,72,0.67,2.24,-999,7.9580,0.365,13.6481,13.9080,11.7,0.1,-999.0000
2022-01-19 12:45:00,2022-01-19 04:45:00,0.6038,41.24,538.90,0.1000,0.1000,1.9180,-1.0,2.1,-999.0,100.0,,57,0.89,1.79,-999,7.9580,0.367,13.6437,13.9050,11.7,0.0,-999.0000
2022-01-19 13:00:00,2022-01-19 05:00:00,0.6107,41.24,535.40,0.2000,0.2000,1.9180,-0.6,2.1,-999.0,100.0,,60,1.34,2.46,-999,7.9530,0.365,13.6437,13.9080,11.7,0.0,-999.0000
2022-01-19 13:15:00,2022-01-19 05:15:00,0.6028,41.24,535.40,0.2000,0.2000,1.9180,-0.8,2.1,-999.0,100.0,,72,0.89,1.79,-999,7.9620,0.365,13.6452,13.9060,11.7,0.0,-999.0000
2022-01-19 13:30:00,2022-01-19 05:30:00,0.6007,41.24,535.20,0.2000,0.2000,1.9180,-0.5,2.1,-999.0,100.0,,72,1.34,2.46,-999,7.9550,0.363,13.6481,13.9080,11.6,0.0,-999.0000
2022-01-19 13:45:00,2022-01-19 05:45:00,0.6040,41.24,535.30,0.3000,0.3000,1.9190,-0.5,2.1,-999.0,100.0,,53,1.12,2.01,-999,7.9520,0.362,13.6466,13.9080,11.7,0.0,-999.0000
2022-01-19 14:00:00,2022-01-19 06:00:00,0.6076,41.24,534.50,0.2000,0.2000,1.9190,-0.5,2.1,-999.0,100.0,,73,1.12,1.57,-999,7.9560,0.362,13.6481,13.9110,11.7,0.0,-999.0000
2022-01-19 14:15:00,2022-01-19 06:15:00,0.6022,41.24,534.80,0.2000,0.2000,1.9190,-0.5,2.1,-999.0,100.0,,67,1.12,1.79,-999,7.9580,0.363,13.6524,13.9130,11.7,0.0,-999.0000
2022-01-19 14:30:00,2022-01-19 06:30:00,0.6055,41.24,534.80,0.3000,0.3000,1.9200,-0.3,2.1,-999.0,100.0,,75,0.89,2.01,-999,7.9470,0.366,13.6510,13.9130,11.7,0.0,-999.0000
2022-01-19 14:45:00,2022-01-19 06:45:00,0.6022,41.24,534.40,0.2000,0.2000,1.9220,-0.3,2.1,-999.0,100.0,,73,1.12,2.46,-999,7.9690,0.363,13.6524,13.9130,11.7,0.0,-999.0000
2022-01-19 15:00:00,2022-01-19 07:00:00,0.6001,41.24,534.30,0.4000,0.4000,1.9220,-0.3,2.1,-999.0,100.0,,55,1.12,2.01,-999,7.9570,0.363,13.6553,13.9150,11.7,0.1,-999.0000
2022-01-19 15:15:00,2022-01-19 07:15:00,0.6070,41.24,534.70,0.3000,0.3000,1.9230,-0.3,2.1,-999.0,100.0,,69,1.34,1.79,-999,7.9680,0.364,13.6553,13.9180,11.7,0.8,-999.0000
2022-01-19 15:30:00,2022-01-19 07:30:00,0.6026,41.24,540.30,0.4000,0.4000,1.9240,-0.1,2.1,-999.0,100.0,,74,1.12,1.79,-999,7.9550,0.364,13.6582,13.9190,11.6,8.9,-999.0000
2022-01-19 15:45:00,2022-01-19 07:45:00,0.6073,41.24,551.00,0.4000,0.4000,1.9250,-0.1,2.1,-999.0,100.0,,53,1.34,3.13,-999,7.9520,0.363,13.6582,13.9210,11.7,11.7,-999.0000
2022-01-19 16:00:00,2022-01-19 08:00:00,0.6039,41.24,525.80,0.5000,0.5000,1.9260,-0.1,2.1,-999.0,100.0,,56,1.34,2.68,-999,7.9630,0.362,13.6597,13.9210,11.7,11.7,-999.0000
2022-01-19 16:15:00,2022-01-19 08:15:00,0.6029,41.24,520.10,0.4000,0.4000,1.9270,-0.1,2.1,-999.0,100.0,,69,1.12,2.01,-999,7.9550,0.364,13.6611,13.9220,11.7,11.7,-999.0000
2022-01-19 16:30:00,2022-01-19 08:30:00,0.6008,41.24,529.30,0.7000,0.7000,1.9270,0.1,2.1,-999.0,100.0,,55,1.34,2.01,-999,7.9680,0.360,13.6640,13.9240,11.7,11.7,-999.0000
2022-01-19 16:45:00,2022-01-19 08:45:00,0.6021,41.24,512.80,0.7000,0.7000,1.9280,0.1,2.1,-999.0,100.0,,64,1.12,2.01,-999,7.9600,0.363,13.6655,13.9260,11.7,11.7,-999.0000
2022-01-19 17:00:00,2022-01-19 09:00:00,0.6010,41.24,512.70,0.9000,0.9000,1.9300,-0.1,2.1,-999.0,100.0,,53,0.89,1.79,-999,7.9610,0.359,13.6669,13.9270,11.8,11.8,-999.0000
2022-01-19 17:15:00,2022-01-19 09:15:00,0.6056,41.24,514.80,1.0000,1.0000,1.9320,0.1,2.1,-999.0,100.0,,54,1.34,2.91,-999,7.9630,0.360,13.6669,13.9290,11.8,11.8,-999.0000
2022-01-19 17:30:00,2022-01-19 09:30:00,0.6000,41.24,515.60,1.4000,1.4000,1.9340,0.2,2.2,-999.0,100.0,,51,1.34,2.68,-999,7.9580,0.354,13.6684,13.9280,11.9,11.9,-999.0000
2022-01-19 17:45:00,2022-01-19 09:45:00,0.6059,41.24,515.40,1.8000,1.8000,1.9370,0.4,2.2,-999.0,100.0,,70,1.12,2.24,-999,7.9690,0.357,13.6698,13.9320,11.9,12.0,-999.0000
2022-01-19 18:00:00,2022-01-19 10:00:00,0.6013,41.24,517.20,2.2000,2.2000,1.9410,0.9,2.2,-999.0,100.0,,59,0.89,2.24,-999,7.9650,0.358,13.6698,13.9300,11.9,12.0,-999.0000
2022-01-19 18:15:00,2022-01-19 10:15:00,0.6002,41.24,517.60,2.4000,2.4000,1.9460,0.9,2.2,-999.0,100.0,,63,1.12,2.24,-999,7.9670,0.356,13.6713,13.9310,12.0,12.0,-999.0000
2022-01-19 18:30:00,2022-01-19 10:30:00,0.5992,41.24,504.50,2.5000,2.5000,1.9510,1.6,2.2,-999.0,100.0,,49,1.57,2.68,-999,7.9700,0.359,13.6727,13.9320,12.1,12.1,-999.0000
2022-01-19 18:45:00,2022-01-19 10:45:00,0.5979,41.24,501.60,2.7000,2.7000,1.9570,1.8,2.2,-999.0,100.0,,46,1.57,2.91,-999,7.9630,0.361,13.6713,13.9300,12.2,12.3,-999.0000
2022-01-19 19:00:00,2022-01-19 11:00:00,0.5989,41.24,-999.00,3.2000,3.2000,1.9650,2.3,-999,-999.0,100.0,,50,1.12,2.24,-999,7.9680,0.370,13.6698,13.9290,12.1,12.2,-999.0000
2022-01-19 19:15:00,2022-01-19 11:15:00,0.6023,41.24,507.40,3.5000,3.5000,1.9730,2.6,2.3,-999.0,100.0,,48,1.12,2.68,-999,7.9690,0.370,13.6684,13.9290,12.1,12.1,-999.0000
2022-01-19 19:30:00,2022-01-19 11:30:00,0.6036,41.24,499.60,3.6000,3.6000,1.9810,3.2,2.3,-999.0,100.0,,52,1.34,2.46,-999,7.9710,0.373,13.6698,13.9310,12.0,12.1,-999.0000
2022-01-19 19:45:00,2022-01-19 11:45:00,0.5992,41.24,499.60,3.4000,3.4000,1.9900,3.3,2.3,-999.0,100.0,,50,1.34,2.91,-999,7.9810,0.384,13.6727,13.9320,12.1,12.1,-999.0000
2022-01-19 20:00:00,2022-01-19 12:00:00,0.6025,41.24,499.20,3.3000,3.3000,1.9990,3.3,2.3,-999.0,100.0,,52,1.57,2.46,-999,7.9730,0.385,13.6713,13.9320,12.0,12.1,-999.0000
2022-01-19 20:15:00,2022-01-19 12:15:00,0.5969,41.24,498.80,3.1000,3.1000,2.0080,3.5,2.3,-999.0,100.0,,45,1.57,2.91,-999,7.9710,0.387,13.6727,13.9310,12.0,12.0,-999.0000
2022-01-19 20:30:00,2022-01-19 12:30:00,0.5977,41.24,498.70,3.3000,3.3000,2.0160,3.5,2,-999.0,100.0,,57,1.12,2.01,-999,7.9760,0.385,13.6684,13.9270,12.0,12.1,-999.0000
2022-01-19 20:45:00,2022-01-19 12:45:00,0.6021,41.24,498.50,3.4000,3.4000,2.0240,3.3,2.3,-999.0,100.0,,49,1.34,2.68,-999,7.9830,0.384,13.6655,13.9260,12.1,12.1,-999.0000
2022-01-19 21:00:00,2022-01-19 13:00:00,0.5998,41.25,498.60,3.2000,3.2000,2.0310,3.3,2.3,-999.0,100.0,,51,1.57,3.80,-999,7.9740,0.385,13.6655,13.9250,12.0,12.1,-999.0000
2022-01-19 21:15:00,2022-01-19 13:15:00,0.5985,41.25,499.30,3.3000,3.3000,2.0370,3.3,2.3,-999.0,100.0,,55,1.57,3.13,-999,7.9720,0.385,13.6640,13.9230,12.0,12.1,-999.0000
2022-01-19 21:30:00,2022-01-19 13:30:00,-999.0000,41.25,499.20,3.3000,3.3000,-999.0000,3.3,2.3,-999.0,100.0,,59,1.12,2.91,-999,-999.0000,0.385,13.6626,-999.0000,12.0,12.0,-999.0000
2022-01-19 21:45:00,2022-01-19 13:45:00,-999.0000,41.25,497.80,3.4000,3.4000,-999.0000,3.3,2.3,-999.0,100.0,,53,1.34,3.13,-999,-999.0000,0.385,13.6626,-999.0000,12.1,12.1,-999.0000
2022-01-19 22:00:00,2022-01-19 14:00:00,-999.0000,41.25,498.70,3.5000,3.5000,-999.0000,3.5,2.4,-999.0,100.0,,58,1.34,2.24,-999,-999.0000,0.385,13.6611,-999.0000,12.1,12.1,-999.0000
2022-01-19 22:15:00,2022-01-19 14:15:00,-999.0000,41.25,-999.00,3.5000,3.5000,-999.0000,3.5,-999,-999.0,100.0,,60,1.12,2.24,-999,-999.0000,0.382,13.6626,-999.0000,12.0,12.0,-999.0000
2022-01-19 22:30:00,2022-01-19 14:30:00,-999.0000,41.26,498.70,3.5000,3.5000,-999.0000,3.7,-999,-999.0,100.0,,53,1.34,2.68,-999,-999.0000,0.381,13.6626,-999.0000,12.0,12.1,-999.0000
2022-01-19 22:45:00,2022-01-19 14:45:00,0.5972,41.26,498.80,3.6000,3.6000,2.0690,3.7,-999,-999.0,100.0,,56,0.89,2.24,-999,7.9920,0.381,13.6626,13.9210,12.0,12.1,-999.0000
2022-01-19 23:00:00,2022-01-19 15:00:00,0.6018,41.26,498.70,3.6000,3.6000,2.0740,3.5,2.4,-999.0,100.0,,58,1.12,2.91,-999,7.9870,0.380,13.6626,13.9230,12.0,12.0,-999.0000
2022-01-19 23:15:00,2022-01-19 15:15:00,0.6018,41.26,-999.00,3.3000,3.3000,2.0780,3.7,-999,-999.0,100.0,,64,1.34,2.68,-999,7.9820,0.377,13.6626,13.9230,11.9,11.9,-999.0000
2022-01-19 23:30:00,2022-01-19 15:30:00,-999.0000,41.27,502.20,3.2000,3.2000,-999.0000,3.5,-999,-999.0,100.0,,56,1.34,2.46,-999,-999.0000,0.374,13.6611,-999.0000,11.9,11.9,-999.0000
2022-01-19 23:45:00,2022-01-19 15:45:00,0.5995,41.27,502.20,2.7000,2.7000,2.0840,3.3,-999,-999.0,100.0,,52,1.57,3.36,-999,8.0060,0.374,13.6626,13.9220,11.9,11.9,-999.0000
2022-01-20 00:00:00,2022-01-19 16:00:00,0.5970,41.27,502.20,2.8000,2.8000,2.0850,3.2,-999,-999.0,100.0,,65,1.12,2.46,-999,7.9920,0.374,13.6597,13.9180,11.8,11.8,-999.0000
2022-01-20 00:15:00,2022-01-19 16:15:00,0.5995,41.27,-999.00,2.8000,2.8000,2.0860,3.0,-999,-999.0,100.0,,60,1.57,3.36,-999,8.0010,0.376,13.6626,13.9220,11.8,11.8,-999.0000
2022-01-20 00:30:00,2022-01-19 16:30:00,0.6018,41.27,-999.00,2.6000,2.6000,2.0860,3.2,-999,-999.0,100.0,,51,1.57,2.91,-999,7.9990,0.376,13.6626,13.9230,11.8,11.8,-999.0000
2022-01-20 00:45:00,2022-01-19 16:45:00,0.5995,41.27,502.10,2.6000,2.6000,2.0850,2.8,2.3,-999.0,100.0,,62,1.34,2.91,-999,8.0040,0.373,13.6626,13.9220,11.8,11.7,-999.0000
2022-01-20 01:00:00,2022-01-19 17:00:00,0.5995,41.27,502.40,2.4000,2.4000,2.0840,2.6,2.3,-999.0,100.0,,56,1.57,3.80,-999,8.0000,0.369,13.6626,13.9220,11.8,8.5,-999.0000
2022-01-20 01:15:00,2022-01-19 17:15:00,-999.0000,41.27,506.90,2.3000,2.3000,-999.0000,2.3,-999,-999.0,100.0,,55,1.34,2.91,-999,-999.0000,0.370,13.6626,-999.0000,11.8,1.0,-999.0000
2022-01-20 01:30:00,2022-01-19 17:30:00,0.5995,41.28,506.50,2.2000,2.2000,2.0780,2.5,2.3,-999.0,100.0,,45,1.79,3.36,-999,8.0060,0.367,13.6626,13.9220,11.8,0.1,-999.0000
2022-01-20 01:45:00,2022-01-19 17:45:00,-999.0000,41.28,504.30,2.2000,2.2000,-999.0000,2.3,2.3,-999.0,100.0,,52,1.79,3.58,-999,-999.0000,0.364,13.6684,-999.0000,11.7,0.0,-999.0000
2022-01-20 02:00:00,2022-01-19 18:00:00,-999.0000,41.29,505.10,2.2000,2.2000,-999.0000,2.1,-999,-999.0,100.0,,49,2.24,3.58,-999,-999.0000,0.363,13.6669,-999.0000,11.7,0.0,-999.0000
2022-01-20 02:15:00,2022-01-19 18:15:00,-999.0000,41.30,493.80,2.2000,2.2000,-999.0000,2.1,2.2,-999.0,100.0,,46,2.46,4.03,-999,-999.0000,0.366,13.6655,-999.0000,11.7,0.0,-999.0000
2022-01-20 02:30:00,2022-01-19 18:30:00,-999.0000,41.31,-999.00,2.1000,2.1000,-999.0000,2.1,-999,-999.0,100.0,,50,2.01,3.36,-999,-999.0000,0.364,13.6626,-999.0000,11.7,0.0,-999.0000
2022-01-20 02:45:00,2022-01-19 18:45:00,0.6018,41.32,-999.00,2.0000,2.0000,2.0590,2.1,-999,-999.0,100.0,,53,1.34,2.46,-999,8.0050,0.364,13.6626,13.9230,11.7,0.0,-999.0000
2022-01-20 03:00:00,2022-01-19 19:00:00,-999.0000,41.32,490.90,2.0000,2.0000,-999.0000,1.8,-999,-999.0,100.0,,48,1.79,3.80,-999,-999.0000,0.364,13.6626,-999.0000,11.7,0.0,-999.0000
2022-01-20 03:15:00,2022-01-19 19:15:00,-999.0000,41.32,-999.00,2.0000,2.0000,-999.0000,1.8,-999,-999.0,100.0,,52,1.57,3.13,-999,-999.0000,0.364,13.6611,-999.0000,11.7,0.0,-999.0000
2022-01-20 03:30:00,2022-01-19 19:30:00,-999.0000,41.32,-999.00,1.9000,1.9000,-999.0000,2.0,-999,-999.0,100.0,,57,1.34,3.36,-999,-999.0000,0.363,13.6611,-999.0000,11.7,0.0,-999.0000
2022-01-20 03:45:00,2022-01-19 19:45:00,0.6052,41.32,500.10,2.2000,2.2000,2.0440,2.0,2.2,-999.0,100.0,,51,2.01,3.36,-999,8.0000,0.359,13.6611,13.9230,11.7,0.1,-999.0000
2022-01-20 04:00:00,2022-01-19 20:00:00,-999.0000,41.32,-999.00,2.1000,2.1000,-999.0000,1.8,-999,-999.0,100.0,,49,1.79,3.36,-999,-999.0000,0.356,13.6640,-999.0000,11.7,0.0,-999.0000
2022-01-20 04:15:00,2022-01-19 20:15:00,-999.0000,41.33,-999.00,2.1000,2.1000,-999.0000,1.8,-999,-999.0,100.0,,50,2.01,4.70,-999,-999.0000,0.360,13.6626,-999.0000,11.7,0.0,-999.0000
2022-01-20 04:30:00,2022-01-19 20:30:00,0.6075,41.34,-999.00,2.0000,2.0000,2.0310,2.0,-999,-999.0,100.0,,46,2.01,4.47,-999,7.9850,0.362,13.6611,13.9240,11.7,0.0,-999.0000
2022-01-20 04:45:00,2022-01-19 20:45:00,0.6062,41.34,-999.00,1.9000,1.9000,2.0270,2.0,-999,-999.0,100.0,,53,1.79,3.80,-999,7.9920,0.363,13.6597,13.9220,11.7,0.0,-999.0000
2022-01-20 05:00:00,2022-01-19 21:00:00,-999.0000,41.34,-999.00,2.0000,2.0000,-999.0000,1.8,-999,-999.0,100.0,,51,2.01,3.36,-999,-999.0000,0.365,13.6611,-999.0000,11.7,0.0,-999.0000
2022-01-20 05:15:00,2022-01-19 21:15:00,-999.0000,41.34,-999.00,2.1000,2.1000,-999.0000,1.8,-999,-999.0,100.0,,46,2.46,5.37,-999,-999.0000,0.365,13.6597,-999.0000,11.7,0.0,-999.0000
2022-01-20 05:30:00,2022-01-19 21:30:00,-999.0000,41.35,485.10,1.9000,1.9000,-999.0000,2.0,-999,-999.0,100.0,,52,1.79,3.36,-999,-999.0000,0.365,13.6582,-999.0000,11.7,0.0,-999.0000
2022-01-20 05:45:00,2022-01-19 21:45:00,-999.0000,41.35,-999.00,2.1000,2.1000,-999.0000,1.8,-999,-999.0,100.0,,51,2.01,3.58,-999,-999.0000,0.369,13.6597,-999.0000,11.7,0.0,-999.0000
2022-01-20 06:00:00,2022-01-19 22:00:00,-999.0000,41.35,-999.00,2.1000,2.1000,-999.0000,1.8,-999,-999.0,100.0,,48,2.24,3.80,-999,-999.0000,0.368,13.6611,-999.0000,11.7,0.0,-999.0000
2022-01-20 06:15:00,2022-01-19 22:15:00,-999.0000,41.38,-999.00,2.2000,2.2000,-999.0000,1.8,-999,-999.0,100.0,,47,2.24,3.58,-999,-999.0000,0.377,13.6611,-999.0000,11.7,0.0,-999.0000
2022-01-20 06:30:00,2022-01-19 22:30:00,-999.0000,41.39,-999.00,2.1000,2.1000,-999.0000,2.0,-999,-999.0,100.0,,60,1.79,3.13,-999,-999.0000,0.363,13.6640,-999.0000,11.7,0.0,-999.0000
2022-01-20 06:45:00,2022-01-19 22:45:00,-999.0000,41.41,-999.00,2.1000,2.1000,-999.0000,2.0,-999,-999.0,100.0,,57,1.79,2.91,-999,-999.0000,0.337,13.6626,-999.0000,11.7,0.0,-999.0000
2022-01-20 07:00:00,2022-01-19 23:00:00,-999.0000,41.45,-999.00,2.2000,2.2000,-999.0000,2.0,-999,-999.0,100.0,,56,2.01,3.80,-999,-999.0000,0.346,13.6626,-999.0000,11.7,0.0,-999.0000
2022-01-20 07:15:00,2022-01-19 23:15:00,-999.0000,41.49,-999.00,2.2000,2.2000,-999.0000,2.0,-999,-999.0,100.0,,52,2.01,3.36,-999,-999.0000,0.344,13.6611,-999.0000,11.7,0.0,-999.0000
2022-01-20 07:30:00,2022-01-19 23:30:00,-999.0000,41.49,-999.00,2.1000,2.1000,-999.0000,2.0,-999,-999.0,100.0,,46,2.46,4.70,-999,-999.0000,0.350,13.6597,-999.0000,11.7,0.0,-999.0000
2022-01-20 07:45:00,2022-01-19 23:45:00,-999.0000,41.50,-999.00,1.9000,1.9000,-999.0000,2.0,-999,-999.0,100.0,,56,1.79,4.03,-999,-999.0000,0.346,13.6553,-999.0000,11.7,0.0,-999.0000
2022-01-20 08:00:00,2022-01-20 00:00:00,-999.0000,41.50,-999.00,2.1000,2.1000,-999.0000,2.0,-999,-999.0,100.0,,41,2.46,5.14,-999,-999.0000,0.348,13.6568,-999.0000,11.7,0.0,-999.0000
2022-01-20 08:15:00,2022-01-20 00:15:00,-999.0000,41.50,-999.00,2.0000,2.0000,-999.0000,2.0,-999,-999.0,100.0,,53,2.01,4.70,-999,-999.0000,0.347,13.6553,-999.0000,11.7,0.0,-999.0000
2022-01-20 08:30:00,2022-01-20 00:30:00,-999.0000,41.50,-999.00,2.0000,2.0000,-999.0000,2.0,-999,-999.0,100.0,,49,1.79,3.36,-999,-999.0000,0.353,13.6568,-999.0000,11.7,0.0,-999.0000
2022-01-20 08:45:00,2022-01-20 00:45:00,-999.0000,41.50,-999.00,2.2000,2.2000,-999.0000,1.8,-999,-999.0,100.0,,42,2.91,4.92,-999,-999.0000,0.353,13.6553,-999.0000,11.7,0.0,-999.0000
2022-01-20 09:00:00,2022-01-20 01:00:00,-999.0000,41.50,-999.00,2.1000,2.1000,-999.0000,1.8,-999,-999.0,100.0,,44,2.24,4.25,-999,-999.0000,0.354,13.6568,-999.0000,11.7,0.0,-999.0000
2022-01-20 09:15:00,2022-01-20 01:15:00,-999.0000,41.53,-999.00,2.0000,2.0000,-999.0000,1.8,-999,-999.0,100.0,,53,1.79,4.03,-999,-999.0000,0.356,13.6582,-999.0000,11.7,0.0,-999.0000
2022-01-20 09:30:00,2022-01-20 01:30:00,0.6163,41.60,-999.00,2.1000,2.1000,1.9970,2.0,-999,-999.0,100.0,,61,1.57,4.03,-999,7.9870,0.355,13.6553,13.9220,11.7,0.0,-999.0000
2022-01-20 09:45:00,2022-01-20 01:45:00,-999.0000,41.65,-999.00,2.2000,2.2000,-999.0000,1.8,-999,-999.0,100.0,,51,2.24,5.14,-999,-999.0000,0.352,13.6568,-999.0000,11.7,0.0,-999.0000
2022-01-20 10:00:00,2022-01-20 02:00:00,0.6222,41.70,-999.00,2.4000,2.4000,1.9940,2.0,-999,-999.0,100.0,,42,2.68,5.14,-999,7.9840,0.329,13.6568,13.9260,11.7,0.0,-999.0000
2022-01-20 10:15:00,2022-01-20 02:15:00,-999.0000,41.74,508.40,2.2000,2.2000,-999.0000,2.0,2.1,-999.0,100.0,,55,0.89,2.46,-999,-999.0000,0.334,13.6568,-999.0000,11.7,0.0,-999.0000
2022-01-20 10:30:00,2022-01-20 02:30:00,0.6278,41.78,-999.00,2.1000,2.1000,1.9900,2.1,-999,-999.0,100.0,,45,1.79,3.36,-999,7.9810,0.335,13.6553,13.9270,11.7,0.0,-999.0000
2022-01-20 10:45:00,2022-01-20 02:45:00,0.6278,41.83,-999.00,2.2000,2.2000,1.9880,2.1,-999,-999.0,100.0,,52,1.57,3.80,-999,7.9810,0.337,13.6553,13.9270,11.7,0.0,-999.0000
2022-01-20 11:00:00,2022-01-20 03:00:00,0.6348,41.87,498.40,2.2000,2.2000,1.9850,2.1,2.1,-999.0,100.0,,45,1.79,3.80,-999,7.9830,0.341,13.6553,13.9300,11.7,0.0,-999.0000
2022-01-20 11:15:00,2022-01-20 03:15:00,0.6369,41.91,505.40,2.2000,2.2000,1.9820,2.0,2.1,-999.0,100.0,,64,1.12,2.46,-999,7.9930,0.330,13.6524,13.9280,11.7,0.0,-999.0000
2022-01-20 11:30:00,2022-01-20 03:30:00,0.6369,41.95,504.20,2.2000,2.2000,1.9780,2.0,2.1,-999.0,100.0,,50,1.79,4.47,-999,7.9740,0.340,13.6524,13.9280,11.7,0.0,-999.0000
2022-01-20 11:45:00,2022-01-20 03:45:00,-999.0000,41.97,499.70,2.2000,2.2000,-999.0000,2.0,2.1,-999.0,100.0,,49,1.34,2.91,-999,-999.0000,0.343,13.6481,-999.0000,11.7,0.0,-999.0000
2022-01-20 12:00:00,2022-01-20 04:00:00,0.6328,41.99,499.30,2.2000,2.2000,1.9700,2.0,2.1,-999.0,100.0,,63,1.57,3.36,-999,7.9800,0.342,13.6452,13.9190,11.7,0.0,-999.0000
2022-01-20 12:15:00,2022-01-20 04:15:00,0.6418,42.02,499.50,2.1000,2.1000,1.9660,2.1,-999,-999.0,100.0,,78,1.34,2.46,-999,7.9830,0.340,13.6422,13.9200,11.7,0.0,-999.0000
2022-01-20 12:30:00,2022-01-20 04:30:00,0.6395,42.04,499.90,2.1000,2.1000,1.9590,2.1,2.1,-999.0,100.0,,62,1.57,3.80,-999,7.9710,0.346,13.6422,13.9190,11.7,0.0,-999.0000
2022-01-20 12:45:00,2022-01-20 04:45:00,0.6418,42.06,500.10,2.2000,2.2000,1.9530,2.1,2.1,-999.0,100.0,,53,1.57,3.80,-999,7.9680,0.345,13.6422,13.9200,11.7,0.0,-999.0000
2022-01-20 13:00:00,2022-01-20 05:00:00,0.6395,42.07,500.60,2.2000,2.2000,1.9470,2.0,2,-999.0,100.0,,53,1.79,3.80,-999,7.9690,0.344,13.6422,13.9190,11.7,0.0,-999.0000
2022-01-20 13:15:00,2022-01-20 05:15:00,0.6441,42.10,501.30,2.2000,2.2000,1.9410,2.0,2,-999.0,100.0,,47,2.01,3.80,-999,7.9700,0.346,13.6422,13.9210,11.7,0.0,-999.0000
2022-01-20 13:30:00,2022-01-20 05:30:00,0.6441,42.13,501.20,2.1000,2.1000,1.9360,2.0,2,-999.0,100.0,,53,1.79,4.03,-999,7.9730,0.344,13.6422,13.9210,11.7,0.0,-999.0000
2022-01-20 13:45:00,2022-01-20 05:45:00,0.6462,42.17,501.10,1.9000,1.9000,1.9310,2.1,2,-999.0,100.0,,50,2.01,5.59,-999,7.9700,0.349,13.6393,13.9190,11.7,0.0,-999.0000
2022-01-20 14:00:00,2022-01-20 06:00:00,0.6493,42.18,-999.00,2.2000,2.2000,1.9260,2.0,-999,-999.0,100.0,,46,2.01,5.82,-999,7.9590,0.354,13.6350,13.9160,11.7,0.0,-999.0000
2022-01-20 14:15:00,2022-01-20 06:15:00,0.6517,42.18,-999.00,2.2000,2.2000,1.9220,2.0,-999,-999.0,100.0,,25,1.57,3.80,-999,7.9750,0.348,13.6350,13.9170,11.7,0.0,-999.0000
2022-01-20 14:30:00,2022-01-20 06:30:00,0.6525,42.19,495.40,2.1000,2.1000,1.9180,2.1,2.3,-999.0,100.0,,47,2.24,4.70,-999,7.9710,0.348,13.6306,13.9130,11.7,0.0,-999.0000
2022-01-20 14:45:00,2022-01-20 06:45:00,0.6512,42.23,501.80,2.2000,2.2000,1.9180,2.0,-999,-999.0,100.0,,50,1.34,3.13,-999,7.9750,0.306,13.6292,13.9110,11.7,0.0,-999.0000
2022-01-20 15:00:00,2022-01-20 07:00:00,0.6525,42.27,502.00,2.3000,2.3000,1.9190,2.0,2.1,-999.0,100.0,,50,2.01,4.25,-999,7.9680,0.330,13.6306,13.9130,11.7,0.0,-999.0000
2022-01-20 15:15:00,2022-01-20 07:15:00,0.6558,42.31,502.30,2.2000,2.2000,1.9170,2.0,-999,-999.0,100.0,,56,1.34,3.80,-999,7.9670,0.311,13.6292,13.9130,11.7,0.2,-999.0000
2022-01-20 15:30:00,2022-01-20 07:30:00,0.6604,42.35,502.80,2.4000,2.4000,1.9150,2.1,2.1,-999.0,100.0,,54,1.34,2.91,-999,7.9720,0.316,13.6292,13.9150,11.7,1.0,-999.0000
2022-01-20 15:45:00,2022-01-20 07:45:00,0.6655,42.42,-999.00,2.7000,2.7000,1.9140,2.1,-999,-999.0,100.0,,48,1.79,4.92,-999,7.9720,0.311,13.6350,13.9230,11.7,4.5,-999.0000
2022-01-20 16:00:00,2022-01-20 08:00:00,0.6691,42.49,-999.00,2.5000,2.5000,1.9130,2.1,-999,-999.0,100.0,,43,2.01,4.03,-999,7.9750,0.356,13.6364,13.9260,11.7,8.3,-999.0000
2022-01-20 16:15:00,2022-01-20 08:15:00,0.6724,42.53,511.50,2.6000,2.6000,1.9110,2.1,2.1,-999.0,100.0,,49,1.79,3.80,-999,7.9950,0.354,13.6350,13.9260,11.7,11.7,-999.0000
2022-01-20 16:30:00,2022-01-20 08:30:00,0.6745,42.53,508.80,2.5000,2.5000,1.9110,2.3,2.1,-999.0,100.0,,38,2.68,4.92,-999,7.9920,0.351,13.6321,13.9240,11.7,11.7,-999.0000
2022-01-20 16:45:00,2022-01-20 08:45:00,0.6737,42.53,510.30,2.7000,2.7000,1.9100,2.5,2,-999.0,100.0,,59,1.57,4.03,-999,8.0040,0.350,13.6364,13.9280,11.7,11.7,-999.0000
2022-01-20 17:00:00,2022-01-20 09:00:00,0.6727,42.54,508.90,2.6000,2.6000,1.9080,2.3,2,-999.0,100.0,,58,1.57,4.25,-999,8.0050,0.349,13.6379,13.9290,11.7,11.7,-999.0000
2022-01-20 17:15:00,2022-01-20 09:15:00,0.6758,42.54,509.30,2.5000,2.5000,1.9070,2.3,2,-999.0,100.0,,50,2.01,6.04,-999,8.0140,0.350,13.6335,13.9260,11.7,11.7,-999.0000
2022-01-20 17:30:00,2022-01-20 09:30:00,0.6792,42.54,509.00,2.8000,2.8000,1.9040,2.5,2,-999.0,100.0,,48,2.46,5.59,-999,8.0180,0.344,13.6321,13.9260,11.7,11.7,-999.0000
2022-01-20 17:45:00,2022-01-20 09:45:00,0.6733,42.54,509.40,2.9000,2.9000,1.9020,2.6,2,-999.0,100.0,,46,1.57,5.14,-999,8.0260,0.342,13.6306,13.9220,11.8,11.7,-999.0000
2022-01-20 18:00:00,2022-01-20 10:00:00,0.6756,42.54,509.20,2.8000,2.8000,1.9000,2.6,-999,-999.0,100.0,,50,1.79,4.70,-999,8.0310,0.340,13.6306,13.9230,11.7,11.8,-999.0000
2022-01-20 18:15:00,2022-01-20 10:15:00,0.6756,42.54,509.40,3.1000,3.1000,1.8990,2.6,2.1,-999.0,100.0,,73,1.12,2.91,-999,8.0450,0.337,13.6306,13.9230,11.8,11.9,-999.0000
2022-01-20 18:30:00,2022-01-20 10:30:00,0.6735,42.54,509.30,3.1000,3.1000,1.8980,3.0,2.1,-999.0,100.0,,60,2.01,4.25,-999,8.0550,0.341,13.6335,13.9250,11.8,11.8,-999.0000
2022-01-20 18:45:00,2022-01-20 10:45:00,0.6737,42.54,509.10,3.2000,3.2000,1.9000,3.0,2.1,-999.0,100.0,,45,1.79,5.82,-999,8.0570,0.336,13.6364,13.9280,11.9,11.8,-999.0000
2022-01-20 19:00:00,2022-01-20 11:00:00,0.6739,42.55,508.80,3.9000,3.9000,1.9020,3.2,2.1,-999.0,100.0,,62,1.79,5.14,-999,8.0610,0.335,13.6393,13.9310,11.9,12.0,-999.0000
2022-01-20 19:15:00,2022-01-20 11:15:00,0.6696,42.55,508.40,3.5000,3.5000,1.9050,3.2,2.1,-999.0,100.0,,52,1.57,3.80,-999,8.0900,0.364,13.6422,13.9320,11.9,11.9,-999.0000
2022-01-20 19:30:00,2022-01-20 11:30:00,0.6739,42.55,508.50,3.8000,3.8000,1.9080,3.5,2.1,-999.0,100.0,,55,2.24,5.14,-999,8.0960,0.363,13.6393,13.9310,12.1,12.1,-999.0000
2022-01-20 19:45:00,2022-01-20 11:45:00,0.6731,42.55,500.90,3.9000,3.9000,1.9120,3.5,2.1,-999.0,100.0,,55,1.57,3.36,-999,8.1190,0.355,13.6437,13.9350,12.2,12.3,-999.0000
2022-01-20 20:00:00,2022-01-20 12:00:00,0.6675,42.55,501.30,4.9000,4.9000,1.9170,3.7,2.2,-999.0,100.0,,53,1.57,3.58,-999,8.1260,0.353,13.6452,13.9340,12.3,12.4,-999.0000
2022-01-20 20:15:00,2022-01-20 12:15:00,0.6696,42.55,520.50,5.8000,5.8000,1.9240,4.2,2.2,-999.0,100.0,,0,1.12,2.91,-999,8.1480,0.357,13.6422,13.9320,12.3,12.4,-999.0000
2022-01-20 20:30:00,2022-01-20 12:30:00,0.6698,42.55,522.40,6.7000,6.7000,1.9330,4.9,2.2,-999.0,100.0,,0,1.34,6.49,-999,8.1580,0.364,13.6452,13.9350,12.3,12.3,-999.0000
2022-01-20 20:45:00,2022-01-20 12:45:00,0.6711,42.55,522.40,6.9000,6.9000,1.9430,5.4,2.3,-999.0,100.0,,100,1.34,3.13,-999,8.1670,0.354,13.6466,13.9370,12.3,12.5,-999.0000
2022-01-20 21:00:00,2022-01-20 13:00:00,0.6631,42.55,522.30,7.0000,7.0000,1.9540,5.7,2.3,-999.0,100.0,,243,2.24,7.16,-999,8.1920,0.343,13.6481,13.9350,12.5,13.1,-999.0000
2022-01-20 21:15:00,2022-01-20 13:15:00,0.6625,42.55,521.50,7.7000,7.7000,1.9650,6.6,2.3,-999.0,99.7,,245,4.92,14.54,-999,8.1900,0.333,13.6553,13.9420,12.2,12.2,-999.0000
2022-01-20 21:30:00,2022-01-20 13:30:00,0.6646,42.55,521.50,6.8000,6.8000,1.9770,7.0,2.3,-999.0,99.5,,240,3.13,7.83,-999,8.2060,0.346,13.6524,13.9400,12.1,12.1,-999.0000
2022-01-20 21:45:00,2022-01-20 13:45:00,0.6656,42.55,521.50,6.1000,5.8000,1.9880,7.0,-999,-999.0,98.1,,241,1.57,8.28,-999,8.2200,0.337,13.6510,13.9390,12.2,12.2,-999.0000
2022-01-20 22:00:00,2022-01-20 14:00:00,0.6679,42.55,521.70,5.5000,5.5000,1.9970,6.4,2.3,-999.0,100.0,,290,1.12,5.59,-999,8.2410,0.324,13.6510,13.9400,12.0,12.0,-999.0000
2022-01-20 22:15:00,2022-01-20 14:15:00,0.6705,42.55,521.50,5.0000,5.0000,2.0050,6.1,2.3,-999.0,99.9,,250,1.57,6.49,-999,8.2500,0.333,13.6539,13.9440,12.1,12.1,-999.0000
2022-01-20 22:30:00,2022-01-20 14:30:00,0.6684,42.55,521.40,5.0000,5.0000,2.0100,5.6,2.3,-999.0,100.0,,0,0.00,1.57,-999,8.2580,0.344,13.6568,13.9460,12.1,12.1,-999.0000
2022-01-20 22:45:00,2022-01-20 14:45:00,0.6730,42.55,520.70,4.7000,4.7000,2.0130,5.2,2.3,-999.0,100.0,,106,1.57,2.91,-999,8.2620,0.345,13.6568,13.9480,12.0,12.0,-999.0000
2022-01-20 23:00:00,2022-01-20 15:00:00,0.6686,42.55,521.50,5.0000,5.0000,2.0150,4.9,2.2,-999.0,100.0,,150,1.12,4.92,-999,8.2710,0.345,13.6597,13.9490,12.1,12.2,-999.0000
2022-01-20 23:15:00,2022-01-20 15:15:00,0.6653,42.55,521.80,4.4000,4.4000,2.0170,4.5,2.2,-999.0,100.0,,0,0.00,1.79,-999,8.2680,0.347,13.6611,13.9490,12.2,12.2,-999.0000
2022-01-20 23:30:00,2022-01-20 15:30:00,0.6655,42.55,541.20,4.4000,4.4000,2.0170,4.5,2.3,-999.0,100.0,,0,0.67,2.68,-999,8.2850,0.353,13.6640,13.9520,12.1,12.1,-999.0000
2022-01-20 23:45:00,2022-01-20 15:45:00,0.6699,42.55,521.20,4.3000,4.3000,2.0180,4.4,2.3,-999.0,100.0,,0,1.34,3.58,-999,8.2850,0.349,13.6611,13.9510,12.0,12.0,-999.0000
2022-01-21 00:00:00,2022-01-20 16:00:00,0.6665,42.55,521.00,3.9000,3.9000,2.0200,4.2,2.3,-999.0,99.7,,0,1.12,4.47,-999,8.2990,0.344,13.6626,13.9510,11.9,11.9,-999.0000
2022-01-21 00:15:00,2022-01-20 16:15:00,0.6668,42.55,520.20,3.8000,3.8000,2.0200,3.8,2.2,-999.0,100.0,,0,0.89,4.70,-999,8.2880,0.339,13.6655,13.9540,11.9,11.8,-999.0000
2022-01-21 00:30:00,2022-01-20 16:30:00,0.6647,42.55,521.70,3.7000,3.7000,2.0220,3.8,2.2,-999.0,99.8,,236,1.34,6.71,-999,8.3000,0.337,13.6684,13.9560,11.8,11.8,-999.0000
2022-01-21 00:45:00,2022-01-20 16:45:00,0.6691,42.56,518.30,3.8000,3.5000,2.0220,3.5,2.2,-999.0,98.0,,188,2.68,9.17,-999,8.3030,0.345,13.6655,13.9550,11.8,11.7,-999.0000
2022-01-21 01:00:00,2022-01-20 17:00:00,0.6680,42.57,520.10,3.4000,3.4000,2.0220,3.3,2.2,-999.0,100.0,,259,2.01,9.17,-999,8.2910,0.340,13.6669,13.9560,11.8,7.0,-999.0000
2022-01-21 01:15:00,2022-01-20 17:15:00,0.6655,42.57,520.50,2.7000,2.7000,2.0200,3.0,2.2,-999.0,100.0,,72,1.12,2.46,-999,8.3090,0.343,13.6640,13.9520,11.8,1.1,-999.0000
2022-01-21 01:30:00,2022-01-20 17:30:00,0.6624,42.58,520.30,2.5000,2.5000,2.0200,2.8,2.2,-999.0,100.0,,68,0.89,3.13,-999,8.3090,0.346,13.6684,13.9550,11.8,0.1,-999.0000
2022-01-21 01:45:00,2022-01-20 17:45:00,0.6675,42.60,520.20,2.6000,2.6000,2.0180,2.6,2.2,-999.0,100.0,,0,1.34,7.61,-999,8.2940,0.333,13.6742,13.9630,11.8,0.0,-999.0000
2022-01-21 02:00:00,2022-01-20 18:00:00,0.6654,42.61,503.20,2.2000,2.2000,2.0160,2.5,2.2,-999.0,100.0,,75,0.89,4.25,-999,8.3120,0.331,13.6771,13.9650,11.8,0.0,-999.0000
2022-01-21 02:15:00,2022-01-20 18:15:00,0.6656,42.62,503.00,2.3000,2.3000,2.0140,2.1,2.2,-999.0,100.0,,303,1.57,4.70,-999,8.3070,0.332,13.6800,13.9680,11.8,0.0,-999.0000
2022-01-21 02:30:00,2022-01-20 18:30:00,0.6635,42.62,501.70,2.6000,2.6000,2.0120,2.1,2.2,-999.0,100.0,,243,2.01,5.14,-999,8.3050,0.310,13.6829,13.9700,11.8,0.0,-999.0000
2022-01-21 02:45:00,2022-01-20 18:45:00,0.6638,42.62,502.20,2.7000,2.7000,2.0100,2.3,2.2,-999.0,100.0,,251,3.80,10.51,-999,8.3080,0.312,13.6858,13.9730,11.8,0.0,-999.0000
2022-01-21 03:00:00,2022-01-20 19:00:00,0.6663,42.62,501.90,2.6000,2.6000,2.0070,2.0,2.2,-999.0,100.0,,260,3.80,10.29,-999,8.3200,0.312,13.6887,13.9770,11.8,0.0,-999.0000
2022-01-21 03:15:00,2022-01-20 19:15:00,0.6640,42.62,502.30,2.4000,2.4000,2.0060,2.1,2.2,-999.0,100.0,,263,3.58,8.95,-999,8.3010,0.318,13.6887,13.9760,11.8,0.0,-999.0000
2022-01-21 03:30:00,2022-01-20 19:30:00,0.6594,42.62,-999.00,2.4000,2.4000,2.0050,2.1,-999,-999.0,100.0,,253,4.03,10.96,-999,8.3140,0.334,13.6887,13.9740,11.8,0.0,-999.0000
2022-01-21 03:45:00,2022-01-20 19:45:00,0.6709,42.63,502.90,2.4000,2.4000,2.0030,2.1,2.2,-999.0,100.0,,257,6.26,14.54,-999,8.3180,0.335,13.6887,13.9790,11.8,0.0,-999.0000
2022-01-21 04:00:00,2022-01-20 20:00:00,0.6678,42.64,503.60,2.4000,2.4000,2.0030,2.1,2.2,-999.0,100.0,,254,9.62,19.24,-999,8.3810,0.316,13.6930,13.9820,11.8,0.0,-999.0000
2022-01-21 04:15:00,2022-01-20 20:15:00,0.6632,42.64,503.80,2.4000,2.4000,2.0030,2.1,2.2,-999.0,100.0,,254,9.40,20.36,-999,8.3240,0.325,13.6930,13.9800,11.8,0.0,-999.0000
2022-01-21 04:30:00,2022-01-20 20:30:00,0.6624,42.65,503.70,2.4000,2.4000,2.0010,2.3,2.2,-999.0,100.0,,254,8.05,17.67,-999,8.3240,0.339,13.6974,13.9840,11.8,0.0,-999.0000
2022-01-21 04:45:00,2022-01-20 20:45:00,0.6659,42.65,504.30,2.4000,2.4000,2.0000,2.0,2.2,-999.0,100.0,,258,7.38,21.03,-999,8.3230,0.322,13.6988,13.9870,11.8,0.0,-999.0000
2022-01-21 05:00:00,2022-01-20 21:00:00,0.6605,42.66,505.80,2.2000,2.2000,1.9980,2.0,2.2,-999.0,100.0,,257,7.16,16.33,-999,8.3250,0.321,13.7032,13.9890,11.8,0.0,-999.0000
2022-01-21 05:15:00,2022-01-20 21:15:00,0.6603,42.67,500.40,2.2000,2.2000,1.9960,2.0,2.2,-999.0,100.0,,254,7.61,18.57,-999,8.3160,0.316,13.7003,13.9860,11.7,0.0,-999.0000
2022-01-21 05:30:00,2022-01-20 21:30:00,0.6639,42.68,500.70,2.1000,2.1000,1.9940,2.1,2.2,-999.0,100.0,,256,7.38,15.66,-999,8.3260,0.318,13.7017,13.9890,11.7,0.0,-999.0000
2022-01-21 05:45:00,2022-01-20 21:45:00,0.6641,42.69,499.80,2.2000,2.2000,1.9940,2.1,2.2,-999.0,100.0,,252,7.83,17.45,-999,8.3310,0.319,13.7046,13.9920,11.8,0.0,-999.0000
2022-01-21 06:00:00,2022-01-20 22:00:00,0.6643,42.69,503.30,2.2000,2.2000,1.9930,2.0,2.2,-999.0,100.0,,255,7.16,17.45,-999,8.3300,0.313,13.7075,13.9950,11.7,0.0,-999.0000
2022-01-21 06:15:00,2022-01-20 22:15:00,0.6633,42.69,-999.00,2.1000,2.1000,1.9930,2.0,-999,-999.0,100.0,,268,5.14,13.87,-999,8.3350,0.319,13.7090,13.9960,11.8,0.0,-999.0000
2022-01-21 06:30:00,2022-01-20 22:30:00,0.6648,42.69,503.30,2.1000,2.1000,1.9940,2.0,2.2,-999.0,100.0,,322,3.58,10.29,-999,8.3460,0.326,13.7133,14.0010,11.7,0.0,-999.0000
2022-01-21 06:45:00,2022-01-20 22:45:00,0.6648,42.69,503.30,2.1000,2.1000,1.9940,2.1,2.2,-999.0,100.0,,345,1.57,6.49,-999,8.3520,0.333,13.7133,14.0010,11.7,0.0,-999.0000
2022-01-21 07:00:00,2022-01-20 23:00:00,0.6625,42.69,505.20,1.9000,1.9000,1.9960,1.8,2.2,-999.0,100.0,,63,1.12,4.70,-999,8.3460,0.330,13.7133,14.0000,11.7,0.0,-999.0000
2022-01-21 07:15:00,2022-01-20 23:15:00,0.6583,42.69,505.20,1.9000,1.9000,1.9960,1.8,2.2,-999.0,100.0,,261,2.68,8.72,-999,8.3420,0.327,13.7191,14.0040,11.7,0.0,-999.0000
2022-01-21 07:30:00,2022-01-20 23:30:00,0.6598,42.69,505.00,1.9000,1.9000,1.9970,1.8,2.2,-999.0,100.0,,328,2.01,7.16,-999,8.3530,0.326,13.7235,14.0090,11.7,0.0,-999.0000
2022-01-21 07:45:00,2022-01-20 23:45:00,0.6647,42.69,505.10,2.0000,2.0000,1.9980,1.6,2.2,-999.0,100.0,,248,4.03,9.62,-999,8.3640,0.325,13.7264,14.0140,11.7,0.0,-999.0000
2022-01-21 08:00:00,2022-01-21 00:00:00,0.6613,42.69,504.50,2.0000,2.0000,1.9990,1.6,2.2,-999.0,100.0,,259,2.68,10.29,-999,8.3660,0.324,13.7278,14.0140,11.7,0.0,-999.0000
2022-01-21 08:15:00,2022-01-21 00:15:00,-999.0000,42.69,504.80,1.8000,1.8000,-999.0000,1.8,2.2,-999.0,100.0,,51,1.57,6.26,-999,-999.0000,0.322,13.7307,-999.0000,11.7,0.0,-999.0000
2022-01-21 08:30:00,2022-01-21 00:30:00,0.6571,42.69,504.60,1.7000,1.7000,1.9990,1.8,2.2,-999.0,100.0,,0,0.67,2.24,-999,8.3810,0.322,13.7336,14.0180,11.7,0.0,-999.0000
2022-01-21 08:45:00,2022-01-21 00:45:00,0.6597,42.69,504.20,1.6000,1.6000,1.9970,1.6,2.2,-999.0,100.0,,281,1.12,4.70,-999,8.3880,0.322,13.7365,14.0220,11.7,0.0,-999.0000
2022-01-21 09:00:00,2022-01-21 01:00:00,0.6599,42.69,503.80,1.8000,1.8000,1.9960,1.6,2.2,-999.0,100.0,,235,0.89,4.70,-999,8.3870,0.323,13.7394,14.0250,11.7,0.1,-999.0000
2022-01-21 09:15:00,2022-01-21 01:15:00,0.6648,42.69,505.20,1.7000,1.7000,1.9950,1.4,-999,-999.0,100.0,,251,1.12,5.14,-999,8.5040,0.318,13.7423,14.0300,11.7,0.0,-999.0000
2022-01-21 09:30:00,2022-01-21 01:30:00,0.6671,42.69,505.20,1.6000,1.6000,1.9970,1.4,2.2,-999.0,100.0,,0,0.00,1.34,-999,8.3910,0.319,13.7423,14.0310,11.7,0.0,-999.0000
2022-01-21 09:45:00,2022-01-21 01:45:00,0.6650,42.69,505.30,1.6000,1.6000,1.9970,1.4,2.2,-999.0,100.0,,0,0.00,2.24,-999,8.4020,0.318,13.7452,14.0330,11.7,0.1,-999.0000
2022-01-21 10:00:00,2022-01-21 02:00:00,0.6667,42.70,507.10,1.5000,1.5000,1.9990,1.3,2.2,-999.0,100.0,,0,0.00,0.89,-999,8.4190,0.316,13.7525,14.0410,11.7,0.0,-999.0000
2022-01-21 10:15:00,2022-01-21 02:15:00,0.6636,42.70,499.50,1.6000,1.6000,2.0000,1.3,2.2,-999.0,100.0,,0,0.00,4.70,-999,8.4240,0.315,13.7568,14.0440,11.7,0.0,-999.0000
2022-01-21 10:30:00,2022-01-21 02:30:00,0.6628,42.71,500.00,1.6000,1.6000,2.0010,1.3,2.2,-999.0,100.0,,242,0.89,2.46,-999,8.4270,0.316,13.7612,14.0480,11.7,0.1,-999.0000
2022-01-21 10:45:00,2022-01-21 02:45:00,0.6656,42.71,-999.00,1.6000,1.6000,2.0030,1.3,-999,-999.0,100.0,,0,0.00,2.91,-999,8.4420,0.316,13.7670,14.0550,11.7,0.0,-999.0000
2022-01-21 11:00:00,2022-01-21 03:00:00,0.6645,42.71,502.50,1.5000,1.5000,2.0030,1.3,2.2,-999.0,100.0,,0,0.00,1.57,-999,8.4470,0.317,13.7684,14.0560,11.7,0.0,-999.0000
2022-01-21 11:15:00,2022-01-21 03:15:00,0.6658,42.71,501.40,1.4000,1.4000,2.0040,1.1,2.2,-999.0,100.0,,0,0.00,2.01,-999,8.4520,0.316,13.7699,14.0580,11.7,0.0,-999.0000
2022-01-21 11:30:00,2022-01-21 03:30:00,0.6660,42.71,503.10,1.4000,1.4000,2.0050,1.3,2.2,-999.0,100.0,,0,0.00,1.79,-999,8.4600,0.319,13.7728,14.0610,11.7,0.0,-999.0000
2022-01-21 11:45:00,2022-01-21 03:45:00,0.6647,42.71,503.10,1.4000,1.4000,2.0060,1.3,2.2,-999.0,100.0,,0,0.00,2.24,-999,8.4560,0.320,13.7713,14.0590,11.7,0.0,-999.0000
2022-01-21 12:00:00,2022-01-21 04:00:00,0.6603,42.71,503.00,1.4000,1.4000,2.0070,1.1,2.2,-999.0,100.0,,0,0.00,1.57,-999,8.4770,0.319,13.7742,14.0600,11.7,0.1,-999.0000
2022-01-21 12:15:00,2022-01-21 04:15:00,0.6616,42.72,501.40,1.4000,1.4000,2.0080,1.1,2.2,-999.0,100.0,,0,0.00,1.34,-999,8.4750,0.319,13.7757,14.0620,11.7,0.0,-999.0000
2022-01-21 12:30:00,2022-01-21 04:30:00,0.6614,42.72,501.00,1.3000,1.3000,2.0090,1.1,2.2,-999.0,100.0,,45,0.89,2.01,-999,8.4780,0.321,13.7728,14.0590,11.7,0.0,-999.0000
2022-01-21 12:45:00,2022-01-21 04:45:00,-999.0000,42.72,499.20,1.1000,1.1000,-999.0000,1.1,2.2,-999.0,100.0,,0,0.00,1.12,-999,-999.0000,0.320,13.7684,-999.0000,11.7,0.0,-999.0000
2022-01-21 13:00:00,2022-01-21 05:00:00,0.6645,42.72,499.10,0.9000,0.9000,2.0100,0.9,2.2,-999.0,100.0,,0,0.00,1.57,-999,8.4960,0.320,13.7684,14.0560,11.7,0.1,-999.0000
2022-01-21 13:15:00,2022-01-21 05:15:00,0.6624,42.72,500.50,0.5000,0.5000,2.0110,0.6,2.2,-999.0,100.0,,356,0.89,1.79,-999,8.5040,0.320,13.7713,14.0580,11.7,0.1,-999.0000
2022-01-21 13:30:00,2022-01-21 05:30:00,0.6683,42.72,500.30,0.3000,0.3000,2.0110,0.4,2.2,-999.0,100.0,,39,1.12,2.68,-999,8.5090,0.321,13.7728,14.0620,11.7,0.1,-999.0000
2022-01-21 13:45:00,2022-01-21 05:45:00,0.6650,42.72,500.30,0.0000,0.0000,2.0110,0.2,2.2,-999.0,100.0,,39,1.12,2.68,-999,8.5070,0.321,13.7742,14.0620,11.7,0.0,-999.0000
2022-01-21 14:00:00,2022-01-21 06:00:00,0.6627,42.72,500.00,-0.2000,-0.2000,2.0110,-0.1,2.2,-999.0,100.0,,55,1.12,2.01,-999,8.5080,0.321,13.7742,14.0610,11.7,0.0,-999.0000
2022-01-21 14:15:00,2022-01-21 06:15:00,0.6660,42.72,500.00,-0.4000,-0.4000,2.0100,-0.5,2.2,-999.0,100.0,,27,1.57,3.58,-999,8.5130,0.320,13.7728,14.0610,11.7,0.0,-999.0000
2022-01-21 14:30:00,2022-01-21 06:30:00,0.6629,42.72,499.80,-0.4000,-0.4000,2.0080,-0.6,2.2,-999.0,100.0,,111,0.67,1.34,-999,8.5060,0.320,13.7771,14.0640,11.7,0.0,-999.0000
2022-01-21 14:45:00,2022-01-21 06:45:00,0.6644,42.72,500.20,-0.3000,-0.3000,2.0060,-0.8,2.2,-999.0,100.0,,276,0.89,2.01,-999,8.5170,0.322,13.7815,14.0690,11.7,0.1,-999.0000
2022-01-21 15:00:00,2022-01-21 07:00:00,0.6647,42.72,498.10,-0.3000,-0.3000,2.0040,-1.0,2.2,-999.0,100.0,,44,1.57,3.80,-999,8.5200,0.321,13.7713,14.0590,11.7,0.2,-999.0000
2022-01-21 15:15:00,2022-01-21 07:15:00,0.6627,42.72,509.40,-0.3000,-0.3000,2.0020,-1.0,2.2,-999.0,100.0,,46,1.12,3.13,-999,8.5210,0.320,13.7742,14.0610,11.7,2.2,-999.0000
2022-01-21 15:30:00,2022-01-21 07:30:00,0.6614,42.72,507.30,-0.2000,-0.2000,1.9990,-1.1,2.2,-999.0,100.0,,57,1.12,3.36,-999,8.5260,0.319,13.7728,14.0590,11.7,10.6,-999.0000
2022-01-21 15:45:00,2022-01-21 07:45:00,0.6627,42.72,508.50,-0.3000,-0.3000,1.9980,-1.1,2.2,-999.0,100.0,,0,0.00,2.01,-999,8.5270,0.318,13.7742,14.0610,11.7,11.7,-999.0000
2022-01-21 16:00:00,2022-01-21 08:00:00,0.6614,42.72,508.20,-0.2000,-0.2000,1.9960,-1.5,2.2,-999.0,100.0,,14,1.12,2.46,-999,8.5140,0.318,13.7728,14.0590,11.7,11.7,-999.0000
2022-01-21 16:15:00,2022-01-21 08:15:00,0.6650,42.72,507.60,-0.2000,-0.2000,1.9940,-1.7,2.2,-999.0,100.0,,0,0.89,3.36,-999,8.5110,0.317,13.7742,14.0620,11.7,11.8,-999.0000
2022-01-21 16:30:00,2022-01-21 08:30:00,0.6665,42.72,507.50,-0.1000,-0.1000,1.9920,-1.5,2.2,-999.0,100.0,,248,1.57,2.91,-999,8.5120,0.316,13.7786,14.0670,11.7,11.7,-999.0000
2022-01-21 16:45:00,2022-01-21 08:45:00,0.6575,42.72,507.30,-0.3000,-0.3000,1.9910,-1.7,2.2,-999.0,100.0,,336,0.00,1.57,-999,8.5110,0.318,13.7815,14.0660,11.8,11.7,-999.0000
2022-01-21 17:00:00,2022-01-21 09:00:00,0.6672,42.72,507.30,-0.2000,-0.2000,1.9890,-1.7,2.2,-999.0,100.0,,264,1.12,3.13,-999,8.5170,0.318,13.7873,14.0760,11.8,11.8,-999.0000
2022-01-21 17:15:00,2022-01-21 09:15:00,0.6599,42.72,506.90,0.0000,0.0000,1.9880,-1.7,2.2,-999.0,100.0,,0,0.89,2.24,-999,8.5060,0.316,13.7974,14.0830,11.9,11.9,-999.0000
2022-01-21 17:30:00,2022-01-21 09:30:00,0.6647,42.72,508.10,0.2000,0.2000,1.9870,-1.3,2.2,-999.0,100.0,,272,1.79,4.03,-999,8.5030,0.316,13.8003,14.0880,11.9,12.0,-999.0000
2022-01-21 17:45:00,2022-01-21 09:45:00,0.6585,42.72,508.30,0.4000,0.4000,1.9870,-0.8,2.2,-999.0,100.0,,0,0.67,2.68,-999,8.5020,0.316,13.8090,14.0940,12.0,12.1,-999.0000
2022-01-21 18:00:00,2022-01-21 10:00:00,0.6621,42.72,507.90,0.5000,0.5000,1.9870,-0.6,2.2,-999.0,100.0,,0,0.00,1.34,-999,8.5050,0.316,13.8105,14.0970,12.0,12.0,-999.0000
2022-01-21 18:15:00,2022-01-21 10:15:00,0.6564,42.72,508.00,1.0000,1.0000,1.9890,-0.3,2.2,-999.0,100.0,,0,0.00,1.34,-999,8.5010,0.318,13.8119,14.0960,12.1,12.2,-999.0000
2022-01-21 18:30:00,2022-01-21 10:30:00,0.6631,42.72,508.70,1.1000,1.1000,1.9920,0.1,2.2,-999.0,100.0,,0,0.00,1.79,-999,8.4880,0.323,13.8090,14.0960,12.0,12.1,-999.0000
2022-01-21 18:45:00,2022-01-21 10:45:00,0.6618,42.72,508.70,1.3000,1.3000,1.9960,0.6,2.2,-999.0,100.0,,35,0.89,2.91,-999,8.4870,0.326,13.8076,14.0940,12.2,12.2,-999.0000
2022-01-21 19:00:00,2022-01-21 11:00:00,0.6582,42.72,509.10,1.4000,1.4000,2.0010,0.9,2.3,-999.0,100.0,,0,1.34,3.13,-999,8.4880,0.333,13.8061,14.0910,12.2,12.2,-999.0000
2022-01-21 19:15:00,2022-01-21 11:15:00,-999.0000,42.72,509.00,1.4000,1.4000,-999.0000,1.1,2.3,-999.0,100.0,,0,1.79,4.70,-999,-999.0000,0.335,13.8076,-999.0000,12.3,12.4,-999.0000
2022-01-21 19:30:00,2022-01-21 11:30:00,0.6603,42.72,-999.00,1.6000,1.6000,2.0140,1.4,-999,-999.0,100.0,,0,0.00,1.57,-999,8.4620,0.336,13.8032,14.0890,12.3,12.5,-999.0000
2022-01-21 19:45:00,2022-01-21 11:45:00,0.6580,42.72,-999.00,1.7000,1.7000,2.0210,1.6,-999,-999.0,100.0,,240,1.79,4.03,-999,8.4810,0.337,13.8032,14.0880,12.2,12.3,-999.0000
2022-01-21 20:00:00,2022-01-21 12:00:00,-999.0000,42.72,508.30,2.3000,2.3000,-999.0000,1.6,2.3,-999.0,100.0,,0,0.00,2.01,-999,-999.0000,0.333,13.8018,-999.0000,12.6,13.1,-999.0000
2022-01-21 20:15:00,2022-01-21 12:15:00,-999.0000,42.72,-999.00,2.4000,1.9000,-999.0000,2.0,-999,-999.0,96.4,,46,1.12,3.13,-999,-999.0000,0.334,13.7974,-999.0000,12.3,12.4,-999.0000
2022-01-21 20:30:00,2022-01-21 12:30:00,0.6573,42.72,509.90,3.2000,2.9000,2.0400,2.6,-999,-999.0,97.9,,204,0.89,2.68,-999,8.4750,0.332,13.7945,14.0790,12.9,13.5,-999.0000
2022-01-21 20:45:00,2022-01-21 12:45:00,0.6550,42.72,-999.00,4.1000,3.1000,2.0460,3.5,-999,-999.0,92.8,,150,0.67,2.24,-999,8.4690,0.327,13.7945,14.0780,12.8,13.4,-999.0000
2022-01-21 21:00:00,2022-01-21 13:00:00,0.6502,42.72,509.60,4.3000,2.8000,2.0530,3.8,2.4,-999.0,90.0,,0,0.00,1.79,-999,8.4700,0.327,13.7916,14.0730,12.6,13.2,-999.0000
2022-01-21 21:15:00,2022-01-21 13:15:00,0.6535,42.72,-999.00,3.1000,2.3000,2.0610,3.8,-999,-999.0,94.0,,152,1.34,1.79,-999,8.4690,0.329,13.7902,14.0730,12.3,12.4,-999.0000
2022-01-21 21:30:00,2022-01-21 13:30:00,0.6546,42.72,-999.00,1.9000,1.9000,2.0680,3.5,-999,-999.0,99.7,,98,1.34,2.01,-999,8.4650,0.334,13.7887,14.0720,12.2,12.3,-999.0000
2022-01-21 21:45:00,2022-01-21 13:45:00,0.6546,42.72,-999.00,2.1000,2.1000,2.0740,3.2,-999,-999.0,100.0,,84,0.89,1.79,-999,8.4700,0.331,13.7887,14.0720,12.3,12.4,-999.0000
2022-01-21 22:00:00,2022-01-21 14:00:00,0.6556,42.72,-999.00,3.3000,3.2000,2.0810,3.0,-999,-999.0,99.6,,0,0.89,2.91,-999,8.4550,0.330,13.7873,14.0710,12.3,12.4,-999.0000
2022-01-21 22:15:00,2022-01-21 14:15:00,0.6520,42.72,-999.00,3.5000,3.5000,2.0850,3.2,-999,-999.0,100.0,,0,0.67,1.79,-999,8.4530,0.334,13.7858,14.0680,12.2,12.3,-999.0000
2022-01-21 22:30:00,2022-01-21 14:30:00,-999.0000,42.72,-999.00,3.7000,3.3000,-999.0000,3.5,-999,-999.0,97.1,,0,0.00,2.01,-999,-999.0000,0.333,13.7902,-999.0000,12.2,12.2,-999.0000
2022-01-21 22:45:00,2022-01-21 14:45:00,-999.0000,42.72,509.50,3.6000,3.5000,-999.0000,3.7,2.4,-999.0,99.5,,0,0.67,2.24,-999,-999.0000,0.333,13.7873,-999.0000,12.2,12.3,-999.0000
2022-01-21 23:00:00,2022-01-21 15:00:00,0.6546,42.72,-999.00,3.7000,3.5000,2.0990,3.8,-999,-999.0,98.7,,0,0.00,2.46,-999,8.4270,0.333,13.7887,14.0720,12.1,12.1,-999.0000
2022-01-21 23:15:00,2022-01-21 15:15:00,0.6491,42.72,-999.00,3.1000,3.1000,2.1040,4.0,-999,-999.0,100.0,,0,0.00,1.34,-999,8.4290,0.335,13.7931,14.0740,12.1,12.1,-999.0000
2022-01-21 23:30:00,2022-01-21 15:30:00,-999.0000,42.72,-999.00,3.3000,3.3000,-999.0000,4.0,-999,-999.0,100.0,,0,0.00,1.79,-999,-999.0000,0.332,13.7931,-999.0000,12.1,12.1,-999.0000
2022-01-21 23:45:00,2022-01-21 15:45:00,-999.0000,42.72,-999.00,2.9000,2.9000,-999.0000,3.8,-999,-999.0,100.0,,0,0.00,1.34,-999,-999.0000,0.333,13.7902,-999.0000,12.1,12.1,-999.0000
2022-01-22 00:00:00,2022-01-21 16:00:00,-999.0000,42.72,-999.00,2.9000,2.9000,-999.0000,3.5,-999,-999.0,100.0,,0,0.00,1.34,-999,-999.0000,0.333,13.7902,-999.0000,12.0,12.1,-999.0000
2022-01-22 00:15:00,2022-01-21 16:15:00,0.6548,42.72,509.10,2.5000,2.5000,2.1170,3.3,2.4,-999.0,100.0,,0,0.00,1.34,-999,8.4040,0.335,13.7916,14.0750,12.0,12.0,-999.0000
2022-01-22 00:30:00,2022-01-21 16:30:00,-999.0000,42.72,509.00,2.3000,2.3000,-999.0000,3.3,-999,-999.0,100.0,,0,0.00,1.34,-999,-999.0000,0.333,13.7931,-999.0000,11.9,11.9,-999.0000
2022-01-22 00:45:00,2022-01-21 16:45:00,0.6550,42.72,506.50,2.1000,2.1000,2.1200,2.8,2.4,-999.0,100.0,,0,0.67,1.79,-999,8.3910,0.334,13.7945,14.0780,11.9,11.9,-999.0000
2022-01-22 01:00:00,2022-01-21 17:00:00,-999.0000,42.72,508.80,1.9000,1.9000,-999.0000,2.6,2.4,-999.0,100.0,,107,0.89,2.01,-999,-999.0000,0.333,13.7931,-999.0000,11.9,11.8,-999.0000
2022-01-22 01:15:00,2022-01-21 17:15:00,0.6548,42.72,508.90,1.7000,1.7000,2.1190,2.5,2.3,-999.0,100.0,,85,1.12,1.79,-999,8.3840,0.331,13.7916,14.0750,11.9,8.9,-999.0000
2022-01-22 01:30:00,2022-01-21 17:30:00,0.6548,42.72,508.40,1.9000,1.9000,2.1190,2.5,2.3,-999.0,100.0,,51,1.34,3.13,-999,8.3730,0.329,13.7916,14.0750,11.9,0.5,-999.0000
2022-01-22 01:45:00,2022-01-21 17:45:00,0.6561,42.72,-999.00,1.8000,1.8000,2.1170,2.1,-999,-999.0,100.0,,53,0.67,1.79,-999,8.3680,0.327,13.7931,14.0770,11.9,0.1,-999.0000
2022-01-22 02:00:00,2022-01-21 18:00:00,0.6558,42.72,504.10,1.7000,1.7000,2.1160,2.0,2.3,-999.0,100.0,,0,0.00,2.46,-999,8.3570,0.327,13.7902,14.0740,11.9,0.1,-999.0000
2022-01-22 02:15:00,2022-01-21 18:15:00,0.6558,42.72,504.00,1.5000,1.5000,2.1140,1.8,2.3,-999.0,100.0,,0,0.89,1.79,-999,8.3590,0.323,13.7902,14.0740,11.9,0.0,-999.0000
2022-01-22 02:30:00,2022-01-21 18:30:00,0.6546,42.72,502.70,1.5000,1.5000,2.1110,1.6,2.3,-999.0,100.0,,73,0.67,2.01,-999,8.3480,0.326,13.7887,14.0720,11.9,0.0,-999.0000
2022-01-22 02:45:00,2022-01-21 18:45:00,0.6556,42.72,502.60,1.4000,1.4000,2.1090,1.6,2.3,-999.0,100.0,,0,0.00,1.34,-999,8.3400,0.324,13.7873,14.0710,11.8,0.0,-999.0000
2022-01-22 03:00:00,2022-01-21 19:00:00,-999.0000,42.72,-999.00,1.3000,1.3000,-999.0000,1.3,-999,-999.0,100.0,,0,0.00,0.89,-999,-999.0000,0.323,13.7887,-999.0000,11.8,0.0,-999.0000
2022-01-22 03:15:00,2022-01-21 19:15:00,-999.0000,42.72,-999.00,1.3000,1.3000,-999.0000,1.1,-999,-999.0,100.0,,0,0.00,1.34,-999,-999.0000,0.321,13.7887,-999.0000,11.8,0.0,-999.0000
2022-01-22 03:30:00,2022-01-21 19:30:00,0.6546,42.72,-999.00,1.2000,1.2000,2.0990,1.3,-999,-999.0,100.0,,0,0.00,1.79,-999,8.3130,0.323,13.7887,14.0720,11.9,0.0,-999.0000
2022-01-22 03:45:00,2022-01-21 19:45:00,0.6487,42.72,504.50,0.9000,0.9000,2.0960,1.1,2.3,-999.0,100.0,,80,1.12,2.68,-999,8.3180,0.323,13.7873,14.0680,11.9,0.0,-999.0000
2022-01-22 04:00:00,2022-01-21 20:00:00,0.6474,42.72,504.50,0.7000,0.7000,2.0940,0.9,2.3,-999.0,100.0,,109,0.89,3.36,-999,8.2950,0.321,13.7858,14.0660,11.8,0.0,-999.0000
2022-01-22 04:15:00,2022-01-21 20:15:00,0.6531,42.72,-999.00,0.5000,0.5000,2.0920,0.7,-999,-999.0,100.0,,0,0.89,2.68,-999,8.3060,0.321,13.7844,14.0670,11.8,0.0,-999.0000
2022-01-22 04:30:00,2022-01-21 20:30:00,-999.0000,42.72,504.70,0.3000,0.3000,-999.0000,0.7,-999,-999.0,100.0,,45,0.89,2.91,-999,-999.0000,0.321,13.7858,-999.0000,11.8,0.0,-999.0000
2022-01-22 04:45:00,2022-01-21 20:45:00,-999.0000,42.72,-999.00,0.0000,0.0000,-999.0000,0.4,-999,-999.0,100.0,,0,0.00,1.34,-999,-999.0000,0.322,13.7829,-999.0000,11.8,0.0,-999.0000
2022-01-22 05:00:00,2022-01-21 21:00:00,-999.0000,42.72,-999.00,-0.3000,-0.3000,-999.0000,0.1,-999,-999.0,100.0,,0,0.00,2.01,-999,-999.0000,0.323,13.7829,-999.0000,11.8,0.0,-999.0000
2022-01-22 05:15:00,2022-01-21 21:15:00,0.6505,42.72,503.40,-0.4000,-0.4000,2.0850,-0.3,2.3,-999.0,100.0,,0,0.00,2.01,-999,8.2630,0.320,13.7815,14.0630,11.8,0.0,-999.0000
2022-01-22 05:30:00,2022-01-21 21:30:00,0.6503,42.72,503.60,-0.6000,-0.6000,2.0820,-0.3,2.3,-999.0,100.0,,38,2.01,4.25,-999,8.2600,0.321,13.7786,14.0600,11.8,0.0,-999.0000
2022-01-22 05:45:00,2022-01-21 21:45:00,0.6547,42.72,503.60,-0.6000,-0.6000,2.0790,-0.6,2.2,-999.0,100.0,,36,2.01,3.36,-999,8.2390,0.319,13.7757,14.0590,11.8,0.0,-999.0000
2022-01-22 06:00:00,2022-01-21 22:00:00,0.6521,42.72,503.80,-0.5000,-0.5000,2.0760,-0.8,2.2,-999.0,100.0,,46,1.57,3.58,-999,8.2340,0.315,13.7728,14.0550,11.8,0.0,-999.0000
2022-01-22 06:15:00,2022-01-21 22:15:00,0.6486,42.72,504.30,-0.4000,-0.4000,2.0720,-1.3,2.2,-999.0,100.0,,83,1.57,3.13,-999,8.2250,0.318,13.7713,14.0520,11.8,0.0,-999.0000
2022-01-22 06:30:00,2022-01-21 22:30:00,0.6542,42.72,504.20,-0.4000,-0.4000,2.0680,-1.5,2.2,-999.0,100.0,,37,1.12,3.58,-999,8.2200,0.314,13.7699,14.0530,11.8,0.0,-999.0000
2022-01-22 06:45:00,2022-01-21 22:45:00,0.6542,42.72,504.10,-0.4000,-0.4000,2.0640,-1.7,2.2,-999.0,100.0,,44,1.34,2.91,-999,8.2100,0.314,13.7699,14.0530,11.8,0.0,-999.0000
2022-01-22 07:00:00,2022-01-21 23:00:00,0.6565,42.72,504.70,-0.5000,-0.5000,2.0600,-1.8,2.2,-999.0,100.0,,43,1.34,2.91,-999,8.1930,0.315,13.7699,14.0540,11.8,0.0,-999.0000
2022-01-22 07:15:00,2022-01-21 23:15:00,0.6530,42.72,504.70,-0.5000,-0.5000,2.0560,-2.0,2.2,-999.0,100.0,,0,1.12,2.91,-999,8.1850,0.317,13.7684,14.0510,11.8,0.0,-999.0000
2022-01-22 07:30:00,2022-01-21 23:30:00,0.6586,42.72,505.20,-0.6000,-0.6000,2.0520,-2.2,2.2,-999.0,100.0,,0,1.34,2.24,-999,8.1770,0.313,13.7670,14.0520,11.8,0.0,-999.0000
2022-01-22 07:45:00,2022-01-21 23:45:00,0.6519,42.72,504.50,-0.8000,-0.8000,2.0480,-2.2,2.2,-999.0,100.0,,33,1.12,2.68,-999,8.1670,0.314,13.7699,14.0520,11.8,0.0,-999.0000